Wetterdaten: Samstag, 14.12.2019
Datum Zeit Temp. Aussen Temp. o. S. Temp +5cm Feuchte Auss Luftdruck Regen Sonnenschein Regendauer Solar Windben Empfang
14.12.2019 00:00 5,6 C 5,0 C 3,9 C 93 % 985,3 hPa 0,0 l/m 0 min 0 min 0 W/m 19,3 km/h (3 Bft) 95,74 %
14.12.2019 00:02 5,6 C 5,0 C 3,3 C 93 % 985,4 hPa 0,0 l/m 0 min 0 min 0 W/m 19,3 km/h (3 Bft) 92,31 %
14.12.2019 00:04 5,6 C 5,0 C 3,3 C 93 % 985,3 hPa 0,0 l/m 0 min 0 min 0 W/m 19,3 km/h (3 Bft) 97,87 %
14.12.2019 00:08 5,6 C 4,4 C 3,3 C 93 % 985,5 hPa 0,0 l/m 0 min 0 min 0 W/m 29,0 km/h (5 Bft) 95,74 %
14.12.2019 00:10 5,5 C 4,4 C 3,3 C 93 % 985,5 hPa 0,0 l/m 0 min 0 min 0 W/m 16,1 km/h (3 Bft) 97,87 %
14.12.2019 00:12 5,5 C 4,4 C 3,3 C 93 % 985,6 hPa 0,0 l/m 0 min 0 min 0 W/m 19,3 km/h (3 Bft) 95,74 %
14.12.2019 00:14 5,5 C 4,4 C 3,3 C 93 % 985,8 hPa 0,0 l/m 0 min 0 min 0 W/m 22,5 km/h (4 Bft) 97,83 %
14.12.2019 00:16 5,4 C 4,4 C 3,3 C 93 % 985,9 hPa 0,0 l/m 0 min 0 min 0 W/m 16,1 km/h (3 Bft) 97,87 %
14.12.2019 00:18 5,4 C 5,0 C 3,9 C 93 % 985,9 hPa 0,0 l/m 0 min 0 min 0 W/m 22,5 km/h (4 Bft) 97,87 %
14.12.2019 00:20 5,4 C 5,0 C 3,9 C 93 % 985,9 hPa 0,0 l/m 0 min 0 min 0 W/m 16,1 km/h (3 Bft) 95,74 %
14.12.2019 00:22 5,4 C 5,0 C 3,9 C 93 % 986,0 hPa 0,0 l/m 0 min 0 min 0 W/m 16,1 km/h (3 Bft) 97,87 %
14.12.2019 00:24 5,4 C 5,0 C 3,9 C 93 % 985,9 hPa 0,0 l/m 0 min 0 min 0 W/m 19,3 km/h (3 Bft) 93,62 %
14.12.2019 00:26 5,4 C 5,0 C 3,9 C 93 % 985,9 hPa 0,0 l/m 0 min 0 min 0 W/m 12,9 km/h (3 Bft) 97,83 %
14.12.2019 00:28 5,4 C 5,0 C 3,9 C 93 % 985,8 hPa 0,0 l/m 0 min 0 min 0 W/m 16,1 km/h (3 Bft) 97,87 %
14.12.2019 00:30 5,4 C 5,0 C 3,9 C 93 % 985,8 hPa 0,0 l/m 0 min 0 min 0 W/m 22,5 km/h (4 Bft) 95,74 %
14.12.2019 00:32 5,4 C 5,0 C 3,9 C 93 % 985,7 hPa 0,0 l/m 0 min 0 min 0 W/m 22,5 km/h (4 Bft) 97,87 %
14.12.2019 00:34 5,4 C 5,0 C 4,4 C 93 % 985,8 hPa 0,0 l/m 0 min 0 min 0 W/m 16,1 km/h (3 Bft) 95,74 %
14.12.2019 00:36 5,4 C 5,0 C 4,4 C 93 % 985,8 hPa 0,0 l/m 0 min 0 min 0 W/m 32,2 km/h (5 Bft) 97,83 %
14.12.2019 00:38 5,4 C 5,0 C 4,4 C 93 % 985,8 hPa 0,0 l/m 0 min 0 min 0 W/m 19,3 km/h (3 Bft) 97,87 %
14.12.2019 00:40 5,4 C 5,0 C 4,4 C 93 % 985,9 hPa 0,0 l/m 0 min 0 min 0 W/m 29,0 km/h (5 Bft) 95,74 %
14.12.2019 00:42 5,5 C 5,0 C 4,4 C 94 % 985,9 hPa 0,0 l/m 0 min 0 min 0 W/m 22,5 km/h (4 Bft) 97,87 %
14.12.2019 00:44 5,5 C 5,0 C 4,4 C 94 % 985,9 hPa 0,0 l/m 0 min 0 min 0 W/m 19,3 km/h (3 Bft) 97,87 %
14.12.2019 00:46 5,4 C 5,0 C 4,4 C 94 % 985,9 hPa 0,0 l/m 0 min 0 min 0 W/m 19,3 km/h (3 Bft) 95,74 %
14.12.2019 00:48 5,5 C 5,0 C 3,9 C 94 % 985,9 hPa 0,0 l/m 0 min 0 min 0 W/m 12,9 km/h (3 Bft) 95,74 %
14.12.2019 00:50 5,5 C 5,0 C 4,4 C 93 % 985,8 hPa 0,0 l/m 0 min 0 min 0 W/m 16,1 km/h (3 Bft) 97,83 %
14.12.2019 00:52 5,5 C 5,0 C 4,4 C 93 % 985,7 hPa 0,0 l/m 0 min 0 min 0 W/m 22,5 km/h (4 Bft) 100,00 %
14.12.2019 00:54 5,5 C 5,0 C 4,4 C 93 % 985,7 hPa 0,0 l/m 0 min 0 min 0 W/m 16,1 km/h (3 Bft) 100,00 %
14.12.2019 00:56 5,5 C 5,0 C 4,4 C 93 % 985,7 hPa 0,0 l/m 0 min 0 min 0 W/m 29,0 km/h (5 Bft) 100,00 %
14.12.2019 00:58 5,5 C 5,0 C 4,4 C 93 % 985,6 hPa 0,0 l/m 0 min 0 min 0 W/m 22,5 km/h (4 Bft) 100,00 %
14.12.2019 01:00 5,5 C 5,0 C 4,4 C 93 % 985,6 hPa 0,0 l/m 0 min 0 min 0 W/m 19,3 km/h (3 Bft) 100,00 %
14.12.2019 01:02 5,4 C 5,0 C 4,4 C 93 % 985,5 hPa 0,0 l/m 0 min 0 min 0 W/m 16,1 km/h (3 Bft) 100,00 %
14.12.2019 01:04 5,4 C 5,0 C 4,4 C 93 % 985,5 hPa 0,0 l/m 0 min 0 min 0 W/m 16,1 km/h (3 Bft) 100,00 %
14.12.2019 01:06 5,5 C 5,0 C 4,4 C 93 % 985,5 hPa 0,0 l/m 0 min 0 min 0 W/m 25,7 km/h (4 Bft) 100,00 %
14.12.2019 01:08 5,4 C 5,0 C 4,4 C 93 % 985,4 hPa 0,0 l/m 0 min 0 min 0 W/m 22,5 km/h (4 Bft) 100,00 %
14.12.2019 01:10 5,4 C 5,0 C 4,4 C 93 % 985,4 hPa 0,0 l/m 0 min 0 min 0 W/m 3,2 km/h (1 Bft) 100,00 %
14.12.2019 01:12 5,5 C 5,0 C 4,4 C 93 % 985,4 hPa 0,0 l/m 0 min 0 min 0 W/m 25,7 km/h (4 Bft) 100,00 %
14.12.2019 01:14 5,5 C 5,0 C 4,4 C 93 % 985,4 hPa 0,0 l/m 0 min 0 min 0 W/m 19,3 km/h (3 Bft) 100,00 %
14.12.2019 01:16 5,5 C 5,0 C 4,4 C 93 % 985,3 hPa 0,0 l/m 0 min 0 min 0 W/m 25,7 km/h (4 Bft) 100,00 %
14.12.2019 01:18 5,5 C 5,0 C 4,4 C 93 % 985,3 hPa 0,0 l/m 0 min 0 min 0 W/m 22,5 km/h (4 Bft) 100,00 %
14.12.2019 01:20 5,5 C 5,0 C 4,4 C 93 % 985,3 hPa 0,0 l/m 0 min 0 min 0 W/m 25,7 km/h (4 Bft) 100,00 %
14.12.2019 01:22 5,5 C 5,0 C 4,4 C 93 % 985,2 hPa 0,0 l/m 0 min 0 min 0 W/m 22,5 km/h (4 Bft) 100,00 %
14.12.2019 01:24 5,5 C 5,0 C 4,4 C 93 % 985,2 hPa 0,0 l/m 0 min 0 min 0 W/m 16,1 km/h (3 Bft) 100,00 %
14.12.2019 01:26 5,5 C 5,0 C 4,4 C 92 % 985,2 hPa 0,0 l/m 0 min 0 min 0 W/m 16,1 km/h (3 Bft) 100,00 %
14.12.2019 01:28 5,6 C 5,0 C 4,4 C 92 % 985,2 hPa 0,0 l/m 0 min 0 min 0 W/m 19,3 km/h (3 Bft) 100,00 %
14.12.2019 01:30 5,5 C 5,0 C 4,4 C 92 % 985,1 hPa 0,0 l/m 0 min 0 min 0 W/m 25,7 km/h (4 Bft) 97,87 %
14.12.2019 01:32 5,6 C 5,0 C 4,4 C 92 % 985,1 hPa 0,0 l/m 0 min 0 min 0 W/m 12,9 km/h (3 Bft) 100,00 %
14.12.2019 01:34 5,6 C 5,0 C 4,4 C 92 % 985,1 hPa 0,0 l/m 0 min 0 min 0 W/m 16,1 km/h (3 Bft) 100,00 %
14.12.2019 01:36 5,6 C 5,0 C 4,4 C 92 % 985,0 hPa 0,0 l/m 0 min 0 min 0 W/m 16,1 km/h (3 Bft) 100,00 %
14.12.2019 01:38 5,6 C 5,0 C 4,4 C 92 % 985,1 hPa 0,0 l/m 0 min 0 min 0 W/m 19,3 km/h (3 Bft) 100,00 %
14.12.2019 01:40 5,6 C 5,0 C 4,4 C 92 % 985,1 hPa 0,0 l/m 0 min 0 min 0 W/m 32,2 km/h (5 Bft) 100,00 %
14.12.2019 01:42 5,6 C 5,0 C 4,4 C 92 % 985,1 hPa 0,0 l/m 0 min 0 min 0 W/m 29,0 km/h (5 Bft) 97,87 %
14.12.2019 01:44 5,5 C 5,0 C 4,4 C 92 % 985,2 hPa 0,0 l/m 0 min 0 min 0 W/m 19,3 km/h (3 Bft) 95,74 %
14.12.2019 01:46 5,6 C 5,0 C 4,4 C 92 % 985,2 hPa 0,0 l/m 0 min 0 min 0 W/m 16,1 km/h (3 Bft) 97,83 %
14.12.2019 01:48 5,6 C 5,0 C 4,4 C 92 % 985,2 hPa 0,0 l/m 0 min 0 min 0 W/m 16,1 km/h (3 Bft) 95,74 %
14.12.2019 01:50 5,6 C 5,0 C 4,4 C 92 % 985,2 hPa 0,0 l/m 0 min 0 min 0 W/m 12,9 km/h (3 Bft) 97,87 %
14.12.2019 01:52 5,5 C 5,0 C 4,4 C 91 % 985,1 hPa 0,0 l/m 0 min 0 min 0 W/m 16,1 km/h (3 Bft) 97,87 %
14.12.2019 01:54 5,6 C 5,0 C 4,4 C 91 % 985,1 hPa 0,0 l/m 0 min 0 min 0 W/m 22,5 km/h (4 Bft) 97,87 %
14.12.2019 01:56 5,5 C 5,0 C 4,4 C 91 % 985,0 hPa 0,0 l/m 0 min 0 min 0 W/m 12,9 km/h (3 Bft) 97,87 %
14.12.2019 01:58 5,6 C 5,0 C 4,4 C 91 % 984,9 hPa 0,0 l/m 0 min 0 min 0 W/m 22,5 km/h (4 Bft) 95,65 %
14.12.2019 02:00 5,6 C 5,0 C 4,4 C 91 % 985,0 hPa 0,0 l/m 0 min 0 min 0 W/m 19,3 km/h (3 Bft) 97,87 %
14.12.2019 02:02 5,6 C 5,0 C 4,4 C 91 % 984,9 hPa 0,0 l/m 0 min 0 min 0 W/m 19,3 km/h (3 Bft) 95,74 %
14.12.2019 02:04 5,6 C 5,0 C 4,4 C 91 % 984,9 hPa 0,0 l/m 0 min 0 min 0 W/m 16,1 km/h (3 Bft) 97,87 %
14.12.2019 02:06 5,6 C 5,0 C 4,4 C 91 % 984,9 hPa 0,0 l/m 0 min 0 min 0 W/m 12,9 km/h (3 Bft) 97,87 %
14.12.2019 02:08 5,6 C 5,0 C 4,4 C 91 % 984,9 hPa 0,0 l/m 0 min 0 min 0 W/m 29,0 km/h (5 Bft) 97,87 %
14.12.2019 02:10 5,6 C 5,0 C 4,4 C 91 % 984,8 hPa 0,0 l/m 0 min 0 min 0 W/m 22,5 km/h (4 Bft) 97,83 %
14.12.2019 02:12 5,6 C 5,0 C 4,4 C 91 % 984,8 hPa 0,0 l/m 0 min 0 min 0 W/m 12,9 km/h (3 Bft) 97,87 %
14.12.2019 02:14 5,6 C 5,0 C 4,4 C 91 % 984,8 hPa 0,0 l/m 0 min 0 min 0 W/m 16,1 km/h (3 Bft) 97,87 %
14.12.2019 02:16 5,6 C 5,0 C 4,4 C 91 % 984,7 hPa 0,0 l/m 0 min 0 min 0 W/m 12,9 km/h (3 Bft) 97,87 %
14.12.2019 02:18 5,6 C 5,0 C 4,4 C 91 % 984,8 hPa 0,0 l/m 0 min 0 min 0 W/m 19,3 km/h (3 Bft) 97,87 %
14.12.2019 02:20 5,6 C 5,0 C 4,4 C 91 % 984,8 hPa 0,0 l/m 0 min 0 min 0 W/m 12,9 km/h (3 Bft) 95,74 %
14.12.2019 02:22 5,6 C 5,0 C 4,4 C 91 % 984,9 hPa 0,0 l/m 0 min 0 min 0 W/m 19,3 km/h (3 Bft) 97,83 %
14.12.2019 02:24 5,6 C 5,0 C 4,4 C 91 % 984,8 hPa 0,0 l/m 0 min 0 min 0 W/m 12,9 km/h (3 Bft) 97,87 %
14.12.2019 02:26 5,6 C 5,0 C 4,4 C 91 % 984,7 hPa 0,0 l/m 0 min 0 min 0 W/m 6,4 km/h (2 Bft) 100,00 %
14.12.2019 02:28 5,6 C 5,0 C 4,4 C 91 % 984,7 hPa 0,0 l/m 0 min 0 min 0 W/m 25,7 km/h (4 Bft) 97,87 %
14.12.2019 02:30 5,6 C 5,0 C 4,4 C 91 % 984,7 hPa 0,0 l/m 0 min 0 min 0 W/m 12,9 km/h (3 Bft) 97,87 %
14.12.2019 02:32 5,6 C 5,0 C 4,4 C 91 % 984,6 hPa 0,0 l/m 0 min 0 min 0 W/m 19,3 km/h (3 Bft) 95,74 %
14.12.2019 02:34 5,6 C 5,0 C 4,4 C 91 % 984,6 hPa 0,0 l/m 0 min 0 min 0 W/m 12,9 km/h (3 Bft) 97,83 %
14.12.2019 02:36 5,6 C 5,0 C 4,4 C 91 % 984,6 hPa 0,0 l/m 0 min 0 min 0 W/m 12,9 km/h (3 Bft) 95,74 %
14.12.2019 02:38 5,6 C 5,0 C 4,4 C 91 % 984,6 hPa 0,0 l/m 0 min 0 min 0 W/m 19,3 km/h (3 Bft) 97,87 %
14.12.2019 02:40 5,6 C 5,0 C 4,4 C 91 % 984,7 hPa 0,0 l/m 0 min 0 min 0 W/m 12,9 km/h (3 Bft) 97,87 %
14.12.2019 02:42 5,6 C 5,0 C 4,4 C 91 % 984,6 hPa 0,0 l/m 0 min 0 min 0 W/m 16,1 km/h (3 Bft) 97,87 %
14.12.2019 02:44 5,6 C 5,0 C 4,4 C 91 % 984,6 hPa 0,0 l/m 0 min 0 min 0 W/m 19,3 km/h (3 Bft) 97,87 %
14.12.2019 02:46 5,6 C 5,0 C 4,4 C 91 % 984,5 hPa 0,0 l/m 0 min 0 min 0 W/m 19,3 km/h (3 Bft) 95,65 %
14.12.2019 02:48 5,6 C 5,0 C 4,4 C 91 % 984,5 hPa 0,0 l/m 0 min 0 min 0 W/m 12,9 km/h (3 Bft) 97,87 %
14.12.2019 02:50 5,6 C 5,0 C 4,4 C 91 % 984,5 hPa 0,0 l/m 0 min 0 min 0 W/m 12,9 km/h (3 Bft) 97,87 %
14.12.2019 02:52 5,6 C 5,0 C 4,4 C 91 % 984,4 hPa 0,0 l/m 0 min 0 min 0 W/m 25,7 km/h (4 Bft) 97,87 %
14.12.2019 02:54 5,6 C 5,0 C 4,4 C 91 % 984,4 hPa 0,0 l/m 0 min 0 min 0 W/m 22,5 km/h (4 Bft) 95,74 %
14.12.2019 02:56 5,6 C 5,0 C 4,4 C 91 % 984,3 hPa 0,0 l/m 0 min 0 min 0 W/m 12,9 km/h (3 Bft) 95,65 %
14.12.2019 02:58 5,6 C 5,0 C 4,4 C 91 % 984,2 hPa 0,0 l/m 0 min 0 min 0 W/m 22,5 km/h (4 Bft) 93,62 %
14.12.2019 03:00 5,6 C 5,0 C 4,4 C 91 % 984,2 hPa 0,0 l/m 0 min 0 min 0 W/m 16,1 km/h (3 Bft) 93,62 %
14.12.2019 03:02 5,6 C 5,0 C 4,4 C 91 % 984,2 hPa 0,0 l/m 0 min 0 min 0 W/m 19,3 km/h (3 Bft) 95,74 %
14.12.2019 03:04 5,6 C 5,0 C 4,4 C 91 % 984,1 hPa 0,0 l/m 0 min 0 min 0 W/m 16,1 km/h (3 Bft) 95,74 %
14.12.2019 03:06 5,6 C 5,0 C 4,4 C 91 % 984,1 hPa 0,0 l/m 0 min 0 min 0 W/m 22,5 km/h (4 Bft) 95,74 %
14.12.2019 03:08 5,6 C 5,0 C 4,4 C 91 % 984,0 hPa 0,0 l/m 0 min 0 min 0 W/m 12,9 km/h (3 Bft) 93,48 %
14.12.2019 03:10 5,6 C 5,0 C 4,4 C 91 % 984,0 hPa 0,0 l/m 0 min 0 min 0 W/m 6,4 km/h (2 Bft) 95,74 %
14.12.2019 03:12 5,6 C 5,0 C 4,4 C 91 % 984,0 hPa 0,0 l/m 0 min 0 min 0 W/m 19,3 km/h (3 Bft) 93,62 %
14.12.2019 03:14 5,6 C 5,0 C 4,4 C 91 % 983,9 hPa 0,0 l/m 0 min 0 min 0 W/m 22,5 km/h (4 Bft) 95,74 %
14.12.2019 03:16 5,6 C 5,0 C 4,4 C 91 % 983,9 hPa 0,0 l/m 0 min 0 min 0 W/m 29,0 km/h (5 Bft) 95,74 %
14.12.2019 03:18 5,6 C 5,0 C 4,4 C 91 % 983,9 hPa 0,0 l/m 0 min 0 min 0 W/m 16,1 km/h (3 Bft) 95,74 %
14.12.2019 03:20 5,6 C 5,0 C 3,9 C 91 % 983,8 hPa 0,0 l/m 0 min 0 min 0 W/m 12,9 km/h (3 Bft) 95,65 %
14.12.2019 03:22 5,6 C 4,4 C 3,9 C 91 % 983,8 hPa 0,0 l/m 0 min 0 min 0 W/m 6,4 km/h (2 Bft) 95,74 %
14.12.2019 03:24 5,6 C 4,4 C 3,9 C 91 % 983,7 hPa 0,0 l/m 0 min 0 min 0 W/m 9,7 km/h (2 Bft) 97,87 %
14.12.2019 03:26 5,6 C 4,4 C 3,9 C 91 % 983,7 hPa 0,0 l/m 0 min 2 min 0 W/m 12,9 km/h (3 Bft) 93,62 %
14.12.2019 03:28 5,6 C 4,4 C 3,9 C 91 % 983,7 hPa 0,0 l/m 0 min 0 min 0 W/m 22,5 km/h (4 Bft) 97,87 %
14.12.2019 03:30 5,6 C 4,4 C 3,9 C 91 % 983,6 hPa 0,0 l/m 0 min 0 min 0 W/m 16,1 km/h (3 Bft) 97,87 %
14.12.2019 03:35 5,6 C 4,4 C 3,9 C 91 % 983,5 hPa 0,0 l/m 0 min 5 min 0 W/m 19,3 km/h (3 Bft) 96,08 %
14.12.2019 03:36 5,6 C 4,4 C 3,9 C 91 % 983,5 hPa 0,0 l/m 0 min 1 min 0 W/m 3,2 km/h (1 Bft) 95,65 %
14.12.2019 03:38 5,5 C 4,4 C 3,3 C 91 % 983,6 hPa 0,0 l/m 0 min 2 min 0 W/m 22,5 km/h (4 Bft) 97,87 %
14.12.2019 03:40 5,5 C 3,9 C 3,3 C 91 % 983,5 hPa 0,0 l/m 0 min 2 min 0 W/m 35,4 km/h (5 Bft) 97,87 %
14.12.2019 03:42 5,5 C 3,9 C 3,3 C 91 % 983,5 hPa 0,0 l/m 0 min 2 min 0 W/m 32,2 km/h (5 Bft) 97,83 %
14.12.2019 03:44 5,5 C 3,9 C 3,3 C 92 % 983,4 hPa 0,2 l/m 0 min 2 min 0 W/m 22,5 km/h (4 Bft) 97,87 %
14.12.2019 03:46 5,5 C 3,9 C 3,3 C 92 % 983,4 hPa 0,0 l/m 0 min 2 min 0 W/m 19,3 km/h (3 Bft) 100,00 %
14.12.2019 03:48 5,5 C 3,9 C 3,3 C 92 % 983,2 hPa 0,0 l/m 0 min 2 min 0 W/m 16,1 km/h (3 Bft) 97,87 %
14.12.2019 03:50 5,4 C 3,9 C 3,3 C 92 % 983,2 hPa 0,0 l/m 0 min 2 min 0 W/m 0,0 km/h (0 Bft) 100,00 %
14.12.2019 03:52 5,4 C 3,9 C 3,3 C 92 % 983,1 hPa 0,2 l/m 0 min 2 min 0 W/m 6,4 km/h (2 Bft) 100,00 %
14.12.2019 03:54 5,4 C 3,3 C 3,3 C 92 % 983,1 hPa 0,0 l/m 0 min 2 min 0 W/m 12,9 km/h (3 Bft) 97,83 %
14.12.2019 03:56 5,4 C 3,3 C 3,3 C 93 % 983,0 hPa 0,0 l/m 0 min 2 min 0 W/m 12,9 km/h (3 Bft) 100,00 %
14.12.2019 03:58 5,4 C 3,3 C 3,3 C 93 % 982,8 hPa 0,0 l/m 0 min 2 min 0 W/m 12,9 km/h (3 Bft) 100,00 %
14.12.2019 04:00 5,3 C 3,3 C 3,3 C 93 % 982,7 hPa 0,2 l/m 0 min 2 min 0 W/m 6,4 km/h (2 Bft) 100,00 %
14.12.2019 04:02 5,3 C 3,3 C 3,3 C 93 % 982,7 hPa 0,0 l/m 0 min 2 min 0 W/m 3,2 km/h (1 Bft) 100,00 %
14.12.2019 04:04 5,3 C 3,3 C 3,3 C 93 % 982,7 hPa 0,0 l/m 0 min 2 min 0 W/m 6,4 km/h (2 Bft) 100,00 %
14.12.2019 04:06 5,3 C 3,3 C 3,3 C 93 % 982,7 hPa 0,0 l/m 0 min 2 min 0 W/m 3,2 km/h (1 Bft) 97,83 %
14.12.2019 04:08 5,3 C 3,3 C 3,3 C 93 % 982,6 hPa 0,0 l/m 0 min 2 min 0 W/m 3,2 km/h (1 Bft) 100,00 %
14.12.2019 04:10 5,2 C 3,3 C 3,3 C 93 % 982,6 hPa 0,0 l/m 0 min 2 min 0 W/m 12,9 km/h (3 Bft) 100,00 %
14.12.2019 04:12 5,2 C 3,3 C 3,3 C 94 % 982,6 hPa 0,2 l/m 0 min 2 min 0 W/m 12,9 km/h (3 Bft) 97,87 %
14.12.2019 04:14 5,2 C 3,3 C 3,3 C 94 % 982,5 hPa 0,0 l/m 0 min 2 min 0 W/m 12,9 km/h (3 Bft) 97,87 %
14.12.2019 04:16 5,2 C 3,3 C 3,3 C 94 % 982,5 hPa 0,0 l/m 0 min 2 min 0 W/m 3,2 km/h (1 Bft) 95,74 %
14.12.2019 04:18 5,1 C 3,3 C 3,3 C 94 % 982,5 hPa 0,0 l/m 0 min 2 min 0 W/m 0,0 km/h (0 Bft) 97,83 %
14.12.2019 04:20 5,1 C 3,3 C 3,3 C 94 % 982,5 hPa 0,0 l/m 0 min 2 min 0 W/m 0,0 km/h (0 Bft) 97,87 %
14.12.2019 04:22 5,1 C 3,3 C 3,3 C 94 % 982,5 hPa 0,2 l/m 0 min 2 min 0 W/m 0,0 km/h (0 Bft) 95,74 %
14.12.2019 04:24 5,1 C 3,3 C 3,3 C 94 % 982,5 hPa 0,0 l/m 0 min 2 min 0 W/m 0,0 km/h (0 Bft) 95,74 %
14.12.2019 04:26 5,1 C 3,3 C 3,3 C 94 % 982,5 hPa 0,2 l/m 0 min 2 min 0 W/m 0,0 km/h (0 Bft) 95,74 %
14.12.2019 04:28 5,1 C 3,3 C 3,3 C 94 % 982,4 hPa 0,0 l/m 0 min 2 min 0 W/m 6,4 km/h (2 Bft) 97,87 %
14.12.2019 04:30 5,1 C 3,3 C 3,3 C 94 % 982,3 hPa 0,0 l/m 0 min 2 min 0 W/m 3,2 km/h (1 Bft) 97,83 %
14.12.2019 04:32 5,0 C 3,3 C 3,3 C 94 % 982,3 hPa 0,2 l/m 0 min 2 min 0 W/m 6,4 km/h (2 Bft) 95,74 %
14.12.2019 04:34 5,0 C 3,3 C 3,3 C 94 % 982,3 hPa 0,0 l/m 0 min 2 min 0 W/m 6,4 km/h (2 Bft) 97,87 %
14.12.2019 04:36 5,0 C 3,3 C 3,3 C 95 % 982,3 hPa 0,2 l/m 0 min 2 min 0 W/m 6,4 km/h (2 Bft) 97,87 %
14.12.2019 04:38 5,0 C 3,3 C 3,3 C 95 % 982,3 hPa 0,0 l/m 0 min 2 min 0 W/m 3,2 km/h (1 Bft) 95,74 %
14.12.2019 04:40 4,9 C 3,3 C 3,3 C 95 % 982,3 hPa 0,2 l/m 0 min 2 min 0 W/m 12,9 km/h (3 Bft) 97,87 %
14.12.2019 04:42 4,9 C 3,3 C 3,3 C 95 % 982,2 hPa 0,0 l/m 0 min 2 min 0 W/m 3,2 km/h (1 Bft) 95,65 %
14.12.2019 04:44 4,9 C 3,3 C 3,3 C 95 % 982,2 hPa 0,2 l/m 0 min 2 min 0 W/m 3,2 km/h (1 Bft) 95,74 %
14.12.2019 04:46 4,9 C 3,3 C 3,3 C 95 % 982,1 hPa 0,0 l/m 0 min 2 min 0 W/m 0,0 km/h (0 Bft) 97,87 %
14.12.2019 04:48 4,9 C 3,3 C 3,3 C 95 % 982,1 hPa 0,2 l/m 0 min 2 min 0 W/m 3,2 km/h (1 Bft) 95,74 %
14.12.2019 04:50 4,8 C 3,3 C 3,3 C 95 % 982,1 hPa 0,2 l/m 0 min 2 min 0 W/m 16,1 km/h (3 Bft) 95,74 %
14.12.2019 04:52 4,8 C 3,3 C 3,3 C 95 % 982,0 hPa 0,0 l/m 0 min 2 min 0 W/m 12,9 km/h (3 Bft) 97,83 %
14.12.2019 04:54 4,8 C 3,3 C 3,3 C 95 % 982,0 hPa 0,2 l/m 0 min 2 min 0 W/m 3,2 km/h (1 Bft) 97,87 %
14.12.2019 04:56 4,8 C 3,3 C 2,8 C 95 % 982,0 hPa 0,2 l/m 0 min 2 min 0 W/m 3,2 km/h (1 Bft) 95,74 %
14.12.2019 04:58 4,8 C 3,3 C 2,8 C 95 % 981,8 hPa 0,2 l/m 0 min 2 min 0 W/m 0,0 km/h (0 Bft) 100,00 %
14.12.2019 05:00 4,8 C 3,3 C 2,8 C 96 % 981,8 hPa 0,0 l/m 0 min 2 min 0 W/m 6,4 km/h (2 Bft) 100,00 %
14.12.2019 05:02 4,7 C 3,3 C 2,8 C 96 % 981,7 hPa 0,2 l/m 0 min 2 min 0 W/m 12,9 km/h (3 Bft) 100,00 %
14.12.2019 05:04 4,7 C 3,3 C 2,8 C 96 % 981,7 hPa 0,0 l/m 0 min 2 min 0 W/m 16,1 km/h (3 Bft) 95,65 %
14.12.2019 05:06 4,7 C 3,3 C 2,8 C 96 % 981,7 hPa 0,2 l/m 0 min 2 min 0 W/m 9,7 km/h (2 Bft) 100,00 %
14.12.2019 05:08 4,7 C 3,3 C 2,8 C 96 % 981,6 hPa 0,2 l/m 0 min 2 min 0 W/m 16,1 km/h (3 Bft) 100,00 %
14.12.2019 05:10 4,7 C 3,3 C 2,8 C 96 % 981,6 hPa 0,0 l/m 0 min 2 min 0 W/m 3,2 km/h (1 Bft) 100,00 %
14.12.2019 05:12 4,7 C 3,3 C 2,8 C 96 % 981,5 hPa 0,0 l/m 0 min 2 min 0 W/m 12,9 km/h (3 Bft) 95,74 %
14.12.2019 05:14 4,6 C 3,3 C 2,8 C 96 % 981,5 hPa 0,0 l/m 0 min 2 min 0 W/m 12,9 km/h (3 Bft) 100,00 %
14.12.2019 05:16 4,6 C 3,3 C 2,8 C 96 % 981,4 hPa 0,2 l/m 0 min 2 min 0 W/m 16,1 km/h (3 Bft) 97,83 %
14.12.2019 05:18 4,6 C 3,3 C 2,8 C 96 % 981,4 hPa 0,0 l/m 0 min 2 min 0 W/m 16,1 km/h (3 Bft) 100,00 %
14.12.2019 05:20 4,6 C 3,3 C 2,8 C 96 % 981,3 hPa 0,0 l/m 0 min 2 min 0 W/m 16,1 km/h (3 Bft) 100,00 %
14.12.2019 05:22 4,6 C 3,3 C 2,8 C 96 % 981,3 hPa 0,0 l/m 0 min 2 min 0 W/m 12,9 km/h (3 Bft) 100,00 %
14.12.2019 05:24 4,6 C 3,3 C 2,8 C 96 % 981,2 hPa 0,2 l/m 0 min 2 min 0 W/m 12,9 km/h (3 Bft) 100,00 %
14.12.2019 05:26 4,6 C 3,3 C 2,8 C 96 % 981,1 hPa 0,0 l/m 0 min 2 min 0 W/m 6,4 km/h (2 Bft) 100,00 %
14.12.2019 05:28 4,5 C 3,3 C 2,8 C 96 % 981,1 hPa 0,0 l/m 0 min 2 min 0 W/m 6,4 km/h (2 Bft) 100,00 %
14.12.2019 05:30 4,5 C 3,3 C 2,8 C 96 % 981,1 hPa 0,2 l/m 0 min 2 min 0 W/m 16,1 km/h (3 Bft) 97,87 %
14.12.2019 05:32 4,5 C 3,3 C 2,8 C 96 % 981,1 hPa 0,0 l/m 0 min 2 min 0 W/m 16,1 km/h (3 Bft) 97,87 %
14.12.2019 05:34 4,4 C 3,3 C 2,8 C 96 % 981,0 hPa 0,0 l/m 0 min 2 min 0 W/m 6,4 km/h (2 Bft) 97,87 %
14.12.2019 05:36 4,4 C 3,3 C 2,8 C 96 % 981,0 hPa 0,2 l/m 0 min 2 min 0 W/m 16,1 km/h (3 Bft) 100,00 %
14.12.2019 05:38 4,4 C 3,3 C 2,8 C 96 % 981,0 hPa 0,0 l/m 0 min 0 min 0 W/m 12,9 km/h (3 Bft) 97,83 %
14.12.2019 05:40 4,4 C 3,3 C 2,8 C 97 % 980,9 hPa 0,0 l/m 0 min 0 min 0 W/m 16,1 km/h (3 Bft) 95,74 %
14.12.2019 05:42 4,4 C 3,3 C 2,8 C 97 % 980,9 hPa 0,0 l/m 0 min 2 min 0 W/m 19,3 km/h (3 Bft) 97,87 %
14.12.2019 05:44 4,3 C 3,3 C 2,8 C 97 % 980,8 hPa 0,0 l/m 0 min 0 min 0 W/m 6,4 km/h (2 Bft) 97,87 %
14.12.2019 05:46 4,3 C 3,3 C 2,8 C 97 % 980,8 hPa 0,0 l/m 0 min 0 min 0 W/m 12,9 km/h (3 Bft) 95,74 %
14.12.2019 05:48 4,3 C 3,3 C 2,8 C 97 % 980,8 hPa 0,0 l/m 0 min 0 min 0 W/m 16,1 km/h (3 Bft) 97,87 %
14.12.2019 05:50 4,3 C 3,3 C 2,8 C 97 % 980,7 hPa 0,0 l/m 0 min 0 min 0 W/m 9,7 km/h (2 Bft) 95,65 %
14.12.2019 05:52 4,3 C 3,3 C 2,8 C 97 % 980,7 hPa 0,0 l/m 0 min 0 min 0 W/m 12,9 km/h (3 Bft) 95,74 %
14.12.2019 05:54 4,3 C 3,3 C 2,8 C 97 % 980,7 hPa 0,0 l/m 0 min 0 min 0 W/m 3,2 km/h (1 Bft) 95,74 %
14.12.2019 05:56 4,3 C 3,3 C 2,8 C 97 % 980,7 hPa 0,2 l/m 0 min 0 min 0 W/m 12,9 km/h (3 Bft) 95,74 %
14.12.2019 05:58 4,3 C 3,3 C 2,8 C 97 % 980,7 hPa 0,0 l/m 0 min 2 min 0 W/m 6,4 km/h (2 Bft) 95,74 %
14.12.2019 06:00 4,3 C 3,3 C 2,8 C 97 % 980,7 hPa 0,0 l/m 0 min 2 min 0 W/m 16,1 km/h (3 Bft) 95,74 %
14.12.2019 06:02 4,3 C 3,3 C 2,8 C 97 % 980,7 hPa 0,0 l/m 0 min 2 min 0 W/m 19,3 km/h (3 Bft) 95,65 %
14.12.2019 06:04 4,3 C 3,3 C 2,8 C 97 % 980,7 hPa 0,0 l/m 0 min 2 min 0 W/m 6,4 km/h (2 Bft) 95,74 %
14.12.2019 06:08 4,3 C 3,3 C 2,8 C 97 % 980,9 hPa 0,0 l/m 0 min 4 min 0 W/m 12,9 km/h (3 Bft) 95,79 %
14.12.2019 06:10 4,3 C 3,3 C 2,8 C 97 % 980,9 hPa 0,2 l/m 0 min 2 min 0 W/m 0,0 km/h (0 Bft) 93,62 %
14.12.2019 06:12 4,3 C 3,3 C 2,8 C 97 % 981,0 hPa 0,0 l/m 0 min 2 min 0 W/m 0,0 km/h (0 Bft) 95,74 %
14.12.2019 06:14 4,3 C 3,3 C 2,8 C 97 % 981,1 hPa 0,0 l/m 0 min 0 min 0 W/m 0,0 km/h (0 Bft) 93,48 %
14.12.2019 06:16 4,3 C 3,3 C 2,8 C 97 % 981,1 hPa 0,0 l/m 0 min 0 min 0 W/m 0,0 km/h (0 Bft) 95,74 %
14.12.2019 06:18 4,3 C 3,3 C 2,8 C 97 % 981,3 hPa 0,0 l/m 0 min 0 min 0 W/m 0,0 km/h (0 Bft) 95,74 %
14.12.2019 06:20 4,3 C 3,3 C 2,8 C 97 % 981,3 hPa 0,0 l/m 0 min 2 min 0 W/m 0,0 km/h (0 Bft) 95,74 %
14.12.2019 06:22 4,3 C 3,3 C 2,8 C 97 % 981,3 hPa 0,0 l/m 0 min 2 min 0 W/m 0,0 km/h (0 Bft) 97,83 %
14.12.2019 06:24 4,3 C 3,3 C 2,8 C 97 % 981,4 hPa 0,0 l/m 0 min 2 min 0 W/m 0,0 km/h (0 Bft) 95,74 %
14.12.2019 06:26 4,3 C 3,3 C 2,8 C 97 % 981,5 hPa 0,0 l/m 0 min 2 min 0 W/m 0,0 km/h (0 Bft) 93,48 %
14.12.2019 06:28 4,3 C 3,3 C 2,8 C 97 % 981,7 hPa 0,0 l/m 0 min 2 min 0 W/m 0,0 km/h (0 Bft) 95,74 %
14.12.2019 06:30 4,3 C 3,3 C 2,8 C 97 % 981,7 hPa 0,0 l/m 0 min 2 min 0 W/m 0,0 km/h (0 Bft) 95,74 %
14.12.2019 06:32 4,3 C 3,3 C 2,8 C 97 % 982,0 hPa 0,0 l/m 0 min 2 min 0 W/m 0,0 km/h (0 Bft) 95,74 %
14.12.2019 06:34 4,3 C 3,3 C 2,8 C 97 % 982,0 hPa 0,0 l/m 0 min 2 min 0 W/m 0,0 km/h (0 Bft) 95,74 %
14.12.2019 06:36 4,3 C 3,3 C 2,8 C 97 % 982,0 hPa 0,2 l/m 0 min 0 min 0 W/m 0,0 km/h (0 Bft) 95,65 %
14.12.2019 06:38 4,3 C 3,3 C 2,8 C 97 % 982,2 hPa 0,0 l/m 0 min 0 min 0 W/m 0,0 km/h (0 Bft) 97,87 %
14.12.2019 06:40 4,3 C 3,3 C 2,8 C 97 % 982,2 hPa 0,0 l/m 0 min 0 min 0 W/m 0,0 km/h (0 Bft) 97,87 %
14.12.2019 06:42 4,3 C 3,3 C 2,8 C 97 % 982,4 hPa 0,0 l/m 0 min 0 min 0 W/m 0,0 km/h (0 Bft) 97,87 %
14.12.2019 06:44 4,3 C 3,3 C 2,8 C 97 % 982,6 hPa 0,0 l/m 0 min 0 min 0 W/m 9,7 km/h (2 Bft) 95,74 %
14.12.2019 06:46 4,3 C 3,3 C 2,8 C 97 % 982,7 hPa 0,0 l/m 0 min 0 min 0 W/m 9,7 km/h (2 Bft) 95,74 %
14.12.2019 06:48 4,3 C 3,3 C 2,8 C 97 % 982,9 hPa 0,0 l/m 0 min 2 min 0 W/m 19,3 km/h (3 Bft) 100,00 %
14.12.2019 06:50 4,3 C 3,3 C 2,8 C 97 % 983,1 hPa 0,0 l/m 0 min 0 min 0 W/m 22,5 km/h (4 Bft) 95,74 %
14.12.2019 06:52 4,3 C 3,3 C 2,8 C 97 % 983,3 hPa 0,0 l/m 0 min 0 min 0 W/m 22,5 km/h (4 Bft) 97,87 %
14.12.2019 06:54 4,3 C 3,3 C 2,8 C 98 % 983,4 hPa 0,0 l/m 0 min 0 min 0 W/m 19,3 km/h (3 Bft) 97,87 %
14.12.2019 06:56 4,3 C 3,3 C 2,8 C 98 % 983,4 hPa 0,0 l/m 0 min 2 min 0 W/m 19,3 km/h (3 Bft) 93,62 %
14.12.2019 06:58 4,3 C 3,3 C 2,8 C 98 % 983,5 hPa 0,0 l/m 0 min 0 min 0 W/m 19,3 km/h (3 Bft) 95,74 %
14.12.2019 07:00 4,3 C 3,3 C 2,8 C 98 % 983,7 hPa 0,0 l/m 0 min 0 min 0 W/m 45,1 km/h (6 Bft) 95,65 %
14.12.2019 07:02 4,3 C 3,3 C 2,8 C 98 % 983,8 hPa 0,0 l/m 0 min 2 min 0 W/m 22,5 km/h (4 Bft) 97,87 %
14.12.2019 07:04 4,3 C 3,3 C 2,8 C 98 % 983,7 hPa 0,0 l/m 0 min 2 min 0 W/m 16,1 km/h (3 Bft) 93,62 %
14.12.2019 07:06 4,3 C 3,3 C 2,8 C 98 % 983,8 hPa 0,0 l/m 0 min 0 min 0 W/m 22,5 km/h (4 Bft) 97,87 %
14.12.2019 07:08 4,2 C 3,3 C 2,8 C 98 % 984,0 hPa 0,0 l/m 0 min 0 min 0 W/m 12,9 km/h (3 Bft) 93,62 %
14.12.2019 07:10 4,2 C 3,3 C 2,8 C 98 % 984,1 hPa 0,0 l/m 0 min 0 min 0 W/m 32,2 km/h (5 Bft) 97,83 %
14.12.2019 07:12 4,2 C 3,3 C 2,8 C 98 % 984,2 hPa 0,0 l/m 0 min 2 min 0 W/m 12,9 km/h (3 Bft) 97,87 %
14.12.2019 07:14 4,2 C 3,3 C 2,8 C 98 % 984,2 hPa 0,0 l/m 0 min 2 min 0 W/m 19,3 km/h (3 Bft) 95,74 %
14.12.2019 07:16 4,2 C 3,3 C 2,8 C 98 % 984,3 hPa 0,0 l/m 0 min 2 min 0 W/m 9,7 km/h (2 Bft) 97,87 %
14.12.2019 07:18 4,1 C 3,3 C 2,8 C 98 % 984,5 hPa 0,0 l/m 0 min 2 min 0 W/m 9,7 km/h (2 Bft) 97,87 %
14.12.2019 07:20 4,1 C 3,3 C 2,8 C 98 % 984,6 hPa 0,2 l/m 0 min 2 min 0 W/m 9,7 km/h (2 Bft) 95,74 %
14.12.2019 07:22 4,1 C 3,3 C 2,8 C 98 % 984,7 hPa 0,0 l/m 0 min 2 min 0 W/m 12,9 km/h (3 Bft) 97,87 %
14.12.2019 07:24 4,1 C 2,8 C 2,8 C 98 % 984,7 hPa 0,0 l/m 0 min 2 min 0 W/m 9,7 km/h (2 Bft) 97,83 %
14.12.2019 07:26 4,1 C 2,8 C 2,8 C 98 % 984,8 hPa 0,0 l/m 0 min 2 min 0 W/m 9,7 km/h (2 Bft) 97,87 %
14.12.2019 07:28 4,1 C 2,8 C 2,8 C 98 % 984,8 hPa 0,0 l/m 0 min 2 min 0 W/m 6,4 km/h (2 Bft) 97,87 %
14.12.2019 07:30 4,1 C 2,8 C 2,8 C 98 % 984,9 hPa 0,0 l/m 0 min 2 min 0 W/m 3,2 km/h (1 Bft) 95,74 %
14.12.2019 07:32 4,0 C 2,8 C 2,8 C 98 % 984,9 hPa 0,0 l/m 0 min 2 min 0 W/m 12,9 km/h (3 Bft) 100,00 %
14.12.2019 07:34 4,0 C 2,8 C 2,8 C 98 % 985,1 hPa 0,0 l/m 0 min 0 min 0 W/m 6,4 km/h (2 Bft) 100,00 %
14.12.2019 07:36 4,0 C 3,3 C 2,8 C 98 % 985,2 hPa 0,0 l/m 0 min 2 min 0 W/m 9,7 km/h (2 Bft) 97,87 %
14.12.2019 07:38 4,0 C 3,3 C 2,8 C 98 % 985,4 hPa 0,0 l/m 0 min 0 min 0 W/m 12,9 km/h (3 Bft) 100,00 %
14.12.2019 07:40 4,0 C 3,3 C 2,8 C 98 % 985,4 hPa 0,0 l/m 0 min 0 min 0 W/m 12,9 km/h (3 Bft) 100,00 %
14.12.2019 07:42 4,0 C 3,3 C 2,8 C 98 % 985,5 hPa 0,0 l/m 0 min 0 min 0 W/m 9,7 km/h (2 Bft) 100,00 %
14.12.2019 07:44 4,1 C 3,3 C 2,8 C 98 % 985,5 hPa 0,0 l/m 0 min 0 min 0 W/m 6,4 km/h (2 Bft) 100,00 %
14.12.2019 07:46 4,0 C 3,3 C 2,8 C 98 % 985,6 hPa 0,0 l/m 0 min 0 min 0 W/m 6,4 km/h (2 Bft) 97,83 %
14.12.2019 07:48 4,1 C 3,3 C 2,8 C 98 % 985,6 hPa 0,0 l/m 0 min 0 min 0 W/m 9,7 km/h (2 Bft) 100,00 %
14.12.2019 07:50 4,1 C 3,3 C 2,8 C 98 % 985,8 hPa 0,0 l/m 0 min 0 min 0 W/m 16,1 km/h (3 Bft) 97,87 %
14.12.2019 07:52 4,1 C 3,3 C 2,8 C 98 % 986,0 hPa 0,0 l/m 0 min 0 min 0 W/m 6,4 km/h (2 Bft) 100,00 %
14.12.2019 07:54 4,1 C 3,3 C 2,8 C 98 % 986,1 hPa 0,0 l/m 0 min 0 min 0 W/m 12,9 km/h (3 Bft) 100,00 %
14.12.2019 07:56 4,1 C 3,3 C 2,8 C 98 % 986,2 hPa 0,0 l/m 0 min 0 min 0 W/m 16,1 km/h (3 Bft) 97,87 %
14.12.2019 07:58 4,2 C 3,3 C 2,8 C 98 % 986,3 hPa 0,0 l/m 0 min 0 min 0 W/m 12,9 km/h (3 Bft) 100,00 %
14.12.2019 08:00 4,2 C 3,3 C 2,8 C 98 % 986,3 hPa 0,0 l/m 0 min 0 min 0 W/m 16,1 km/h (3 Bft) 100,00 %
14.12.2019 08:02 4,2 C 3,3 C 3,3 C 98 % 986,6 hPa 0,0 l/m 0 min 0 min 0 W/m 16,1 km/h (3 Bft) 97,87 %
14.12.2019 08:04 4,3 C 3,9 C 3,3 C 98 % 986,6 hPa 0,0 l/m 0 min 0 min 0 W/m 16,1 km/h (3 Bft) 100,00 %
14.12.2019 08:06 4,3 C 3,9 C 3,3 C 98 % 986,7 hPa 0,0 l/m 0 min 0 min 0 W/m 16,1 km/h (3 Bft) 100,00 %
14.12.2019 08:08 4,3 C 3,9 C 3,3 C 98 % 986,8 hPa 0,0 l/m 0 min 0 min 0 W/m 19,3 km/h (3 Bft) 100,00 %
14.12.2019 08:10 4,4 C 3,9 C 3,3 C 99 % 986,9 hPa 0,0 l/m 0 min 0 min 0 W/m 19,3 km/h (3 Bft) 100,00 %
14.12.2019 08:12 4,4 C 3,9 C 3,3 C 99 % 986,9 hPa 0,0 l/m 0 min 0 min 0 W/m 19,3 km/h (3 Bft) 97,87 %
14.12.2019 08:14 4,5 C 3,9 C 3,3 C 99 % 986,9 hPa 0,0 l/m 0 min 0 min 0 W/m 16,1 km/h (3 Bft) 100,00 %
14.12.2019 08:16 4,5 C 3,9 C 3,3 C 99 % 987,1 hPa 0,0 l/m 0 min 0 min 0 W/m 22,5 km/h (4 Bft) 100,00 %
14.12.2019 08:18 4,6 C 3,9 C 3,3 C 99 % 987,1 hPa 0,0 l/m 0 min 0 min 0 W/m 32,2 km/h (5 Bft) 97,87 %
14.12.2019 08:20 4,6 C 3,9 C 3,3 C 98 % 987,2 hPa 0,0 l/m 0 min 0 min 0 W/m 12,9 km/h (3 Bft) 97,83 %
14.12.2019 08:22 4,6 C 3,9 C 3,3 C 99 % 987,4 hPa 0,0 l/m 0 min 0 min 0 W/m 29,0 km/h (5 Bft) 100,00 %
14.12.2019 08:24 4,6 C 3,9 C 3,3 C 99 % 987,4 hPa 0,0 l/m 0 min 0 min 0 W/m 16,1 km/h (3 Bft) 100,00 %
14.12.2019 08:26 4,6 C 3,9 C 3,3 C 99 % 987,5 hPa 0,0 l/m 0 min 0 min 0 W/m 12,9 km/h (3 Bft) 95,74 %
14.12.2019 08:28 4,6 C 3,9 C 3,3 C 99 % 987,6 hPa 0,0 l/m 0 min 0 min 0 W/m 22,5 km/h (4 Bft) 97,87 %
14.12.2019 08:30 4,7 C 3,9 C 3,3 C 99 % 987,6 hPa 0,0 l/m 0 min 0 min 0 W/m 29,0 km/h (5 Bft) 100,00 %
14.12.2019 08:32 4,7 C 3,9 C 3,3 C 99 % 987,8 hPa 0,0 l/m 0 min 0 min 0 W/m 19,3 km/h (3 Bft) 100,00 %
14.12.2019 08:34 4,7 C 3,9 C 3,3 C 99 % 987,9 hPa 0,0 l/m 0 min 0 min 0 W/m 22,5 km/h (4 Bft) 97,87 %
14.12.2019 08:36 4,7 C 3,9 C 3,3 C 99 % 988,0 hPa 0,0 l/m 0 min 0 min 0 W/m 19,3 km/h (3 Bft) 97,87 %
14.12.2019 08:38 4,7 C 3,9 C 3,3 C 99 % 988,1 hPa 0,0 l/m 0 min 0 min 4 W/m 25,7 km/h (4 Bft) 97,87 %
14.12.2019 08:40 4,7 C 3,9 C 3,3 C 99 % 988,1 hPa 0,0 l/m 0 min 0 min 5 W/m 35,4 km/h (5 Bft) 97,87 %
14.12.2019 08:42 4,7 C 3,9 C 3,3 C 99 % 988,2 hPa 0,0 l/m 0 min 0 min 6 W/m 16,1 km/h (3 Bft) 97,87 %
14.12.2019 08:44 4,7 C 3,9 C 3,3 C 99 % 988,1 hPa 0,0 l/m 0 min 0 min 8 W/m 19,3 km/h (3 Bft) 97,83 %
14.12.2019 08:46 4,7 C 3,9 C 3,3 C 99 % 988,2 hPa 0,0 l/m 0 min 0 min 9 W/m 16,1 km/h (3 Bft) 97,87 %
14.12.2019 08:48 4,7 C 3,9 C 3,3 C 99 % 988,3 hPa 0,0 l/m 0 min 0 min 11 W/m 9,7 km/h (2 Bft) 97,87 %
14.12.2019 08:50 4,7 C 3,9 C 3,3 C 98 % 988,3 hPa 0,0 l/m 0 min 0 min 15 W/m 22,5 km/h (4 Bft) 97,87 %
14.12.2019 08:52 4,6 C 3,9 C 3,3 C 98 % 988,5 hPa 0,0 l/m 0 min 0 min 15 W/m 25,7 km/h (4 Bft) 95,74 %
14.12.2019 08:54 4,7 C 3,9 C 3,3 C 98 % 988,5 hPa 0,0 l/m 0 min 0 min 13 W/m 25,7 km/h (4 Bft) 97,87 %
14.12.2019 08:56 4,7 C 3,9 C 3,3 C 98 % 988,5 hPa 0,0 l/m 0 min 0 min 15 W/m 19,3 km/h (3 Bft) 97,83 %
14.12.2019 08:58 4,7 C 3,9 C 3,3 C 98 % 988,4 hPa 0,0 l/m 0 min 0 min 16 W/m 16,1 km/h (3 Bft) 95,74 %
14.12.2019 09:00 4,7 C 3,9 C 3,3 C 98 % 988,5 hPa 0,0 l/m 0 min 0 min 21 W/m 16,1 km/h (3 Bft) 91,49 %
14.12.2019 09:02 4,7 C 3,9 C 3,3 C 98 % 988,5 hPa 0,0 l/m 0 min 0 min 28 W/m 22,5 km/h (4 Bft) 95,74 %
14.12.2019 09:04 4,7 C 3,9 C 3,3 C 98 % 988,4 hPa 0,0 l/m 2 min 0 min 31 W/m 25,7 km/h (4 Bft) 95,74 %
14.12.2019 09:06 4,8 C 3,9 C 3,3 C 99 % 988,5 hPa 0,0 l/m 2 min 0 min 34 W/m 22,5 km/h (4 Bft) 97,87 %
14.12.2019 09:08 4,8 C 3,9 C 3,3 C 99 % 988,4 hPa 0,0 l/m 2 min 0 min 35 W/m 12,9 km/h (3 Bft) 95,65 %
14.12.2019 09:10 4,8 C 4,4 C 3,3 C 99 % 988,5 hPa 0,0 l/m 2 min 0 min 39 W/m 12,9 km/h (3 Bft) 55,56 %
14.12.2019 09:12 4,8 C 4,4 C 3,3 C 99 % 988,5 hPa 0,0 l/m 0 min 0 min 36 W/m 16,1 km/h (3 Bft) 95,74 %
14.12.2019 09:14 4,8 C 4,4 C 3,3 C 99 % 988,5 hPa 0,0 l/m 0 min 0 min 38 W/m 22,5 km/h (4 Bft) 95,74 %
14.12.2019 09:16 4,8 C 4,4 C 3,3 C 99 % 988,7 hPa 0,0 l/m 0 min 0 min 39 W/m 16,1 km/h (3 Bft) 95,74 %
14.12.2019 09:18 4,8 C 4,4 C 3,3 C 99 % 988,7 hPa 0,0 l/m 0 min 0 min 39 W/m 16,1 km/h (3 Bft) 95,65 %
14.12.2019 09:20 4,8 C 4,4 C 3,3 C 98 % 988,7 hPa 0,0 l/m 0 min 0 min 36 W/m 22,5 km/h (4 Bft) 93,62 %
14.12.2019 09:22 4,8 C 4,4 C 3,3 C 98 % 988,7 hPa 0,0 l/m 0 min 0 min 40 W/m 19,3 km/h (3 Bft) 93,62 %
14.12.2019 09:24 4,8 C 4,4 C 3,3 C 98 % 988,9 hPa 0,0 l/m 0 min 0 min 47 W/m 19,3 km/h (3 Bft) 95,74 %
14.12.2019 09:26 4,9 C 4,4 C 3,3 C 98 % 988,9 hPa 0,0 l/m 0 min 0 min 35 W/m 19,3 km/h (3 Bft) 95,74 %
14.12.2019 09:28 4,8 C 4,4 C 3,3 C 98 % 988,9 hPa 0,0 l/m 0 min 0 min 26 W/m 16,1 km/h (3 Bft) 93,62 %
14.12.2019 09:30 4,9 C 4,4 C 3,3 C 98 % 989,0 hPa 0,0 l/m 0 min 0 min 26 W/m 16,1 km/h (3 Bft) 93,48 %
14.12.2019 09:32 4,9 C 4,4 C 3,3 C 98 % 988,9 hPa 0,0 l/m 0 min 0 min 26 W/m 35,4 km/h (5 Bft) 93,62 %
14.12.2019 09:34 4,9 C 3,9 C 3,3 C 98 % 989,1 hPa 0,0 l/m 0 min 0 min 22 W/m 12,9 km/h (3 Bft) 93,62 %
14.12.2019 09:36 4,9 C 4,4 C 3,3 C 98 % 989,1 hPa 0,0 l/m 0 min 0 min 25 W/m 19,3 km/h (3 Bft) 95,74 %
14.12.2019 09:38 4,9 C 4,4 C 3,3 C 98 % 989,2 hPa 0,0 l/m 0 min 0 min 37 W/m 12,9 km/h (3 Bft) 95,74 %
14.12.2019 09:40 4,9 C 4,4 C 3,9 C 98 % 989,2 hPa 0,0 l/m 0 min 0 min 48 W/m 29,0 km/h (5 Bft) 95,74 %
14.12.2019 09:42 4,9 C 4,4 C 3,9 C 98 % 989,3 hPa 0,0 l/m 0 min 0 min 46 W/m 19,3 km/h (3 Bft) 95,65 %
14.12.2019 09:44 5,0 C 4,4 C 3,9 C 98 % 989,5 hPa 0,0 l/m 0 min 0 min 36 W/m 22,5 km/h (4 Bft) 93,62 %
14.12.2019 09:46 5,1 C 4,4 C 3,9 C 98 % 989,5 hPa 0,0 l/m 0 min 0 min 26 W/m 22,5 km/h (4 Bft) 93,62 %
14.12.2019 09:48 5,1 C 4,4 C 3,9 C 98 % 989,7 hPa 0,0 l/m 0 min 2 min 18 W/m 19,3 km/h (3 Bft) 93,62 %
14.12.2019 09:50 5,1 C 4,4 C 3,3 C 98 % 989,6 hPa 0,0 l/m 0 min 2 min 12 W/m 22,5 km/h (4 Bft) 93,62 %
14.12.2019 09:52 5,1 C 3,9 C 3,3 C 98 % 989,6 hPa 0,0 l/m 0 min 2 min 11 W/m 16,1 km/h (3 Bft) 95,74 %
14.12.2019 09:54 5,1 C 3,9 C 3,3 C 98 % 989,7 hPa 0,0 l/m 0 min 2 min 13 W/m 19,3 km/h (3 Bft) 95,65 %
14.12.2019 09:56 5,1 C 3,9 C 3,3 C 98 % 989,7 hPa 0,2 l/m 0 min 2 min 16 W/m 25,7 km/h (4 Bft) 93,62 %
14.12.2019 09:58 5,1 C 3,9 C 3,3 C 98 % 989,7 hPa 0,0 l/m 0 min 2 min 15 W/m 22,5 km/h (4 Bft) 95,74 %
14.12.2019 10:00 5,1 C 3,9 C 3,3 C 98 % 989,8 hPa 0,0 l/m 0 min 2 min 14 W/m 9,7 km/h (2 Bft) 95,74 %
14.12.2019 10:02 5,1 C 3,9 C 3,3 C 97 % 989,8 hPa 0,0 l/m 0 min 2 min 14 W/m 25,7 km/h (4 Bft) 95,74 %
14.12.2019 10:04 5,1 C 3,9 C 3,3 C 97 % 989,8 hPa 0,0 l/m 0 min 2 min 14 W/m 16,1 km/h (3 Bft) 97,87 %
14.12.2019 10:06 5,0 C 3,9 C 3,3 C 97 % 990,0 hPa 0,0 l/m 0 min 2 min 13 W/m 16,1 km/h (3 Bft) 97,83 %
14.12.2019 10:08 5,0 C 3,9 C 3,3 C 97 % 990,1 hPa 0,0 l/m 0 min 2 min 12 W/m 16,1 km/h (3 Bft) 97,87 %
14.12.2019 10:10 5,0 C 3,9 C 3,3 C 97 % 990,1 hPa 0,0 l/m 0 min 2 min 10 W/m 16,1 km/h (3 Bft) 100,00 %
14.12.2019 10:12 4,9 C 3,9 C 3,3 C 97 % 990,1 hPa 0,0 l/m 0 min 2 min 11 W/m 12,9 km/h (3 Bft) 100,00 %
14.12.2019 10:14 4,9 C 3,9 C 3,3 C 97 % 990,1 hPa 0,0 l/m 0 min 2 min 15 W/m 16,1 km/h (3 Bft) 97,87 %
14.12.2019 10:16 4,9 C 3,9 C 3,3 C 97 % 990,1 hPa 0,0 l/m 0 min 2 min 23 W/m 22,5 km/h (4 Bft) 97,83 %
14.12.2019 10:18 4,9 C 3,9 C 3,3 C 97 % 990,1 hPa 0,0 l/m 0 min 2 min 42 W/m 16,1 km/h (3 Bft) 97,87 %
14.12.2019 10:20 4,9 C 3,9 C 3,3 C 97 % 990,2 hPa 0,0 l/m 0 min 0 min 48 W/m 12,9 km/h (3 Bft) 97,87 %
14.12.2019 10:22 5,0 C 4,4 C 3,3 C 97 % 990,2 hPa 0,0 l/m 0 min 2 min 52 W/m 16,1 km/h (3 Bft) 100,00 %
14.12.2019 10:24 5,0 C 4,4 C 3,9 C 97 % 990,3 hPa 0,0 l/m 0 min 2 min 56 W/m 16,1 km/h (3 Bft) 100,00 %
14.12.2019 10:26 5,1 C 4,4 C 3,9 C 97 % 990,3 hPa 0,0 l/m 0 min 2 min 35 W/m 19,3 km/h (3 Bft) 100,00 %
14.12.2019 10:28 5,1 C 4,4 C 3,9 C 97 % 990,4 hPa 0,0 l/m 0 min 2 min 19 W/m 12,9 km/h (3 Bft) 97,83 %
14.12.2019 10:30 5,1 C 4,4 C 3,9 C 97 % 990,5 hPa 0,0 l/m 0 min 2 min 19 W/m 25,7 km/h (4 Bft) 100,00 %
14.12.2019 10:32 5,2 C 4,4 C 3,9 C 97 % 990,5 hPa 0,0 l/m 0 min 2 min 26 W/m 16,1 km/h (3 Bft) 100,00 %
14.12.2019 10:34 5,2 C 4,4 C 3,9 C 97 % 990,5 hPa 0,0 l/m 0 min 2 min 32 W/m 12,9 km/h (3 Bft) 100,00 %
14.12.2019 10:36 5,2 C 4,4 C 3,9 C 97 % 990,7 hPa 0,0 l/m 0 min 2 min 54 W/m 19,3 km/h (3 Bft) 100,00 %
14.12.2019 10:38 5,3 C 4,4 C 3,9 C 97 % 990,7 hPa 0,0 l/m 0 min 2 min 52 W/m 22,5 km/h (4 Bft) 100,00 %
14.12.2019 10:40 5,3 C 4,4 C 3,9 C 97 % 990,8 hPa 0,0 l/m 0 min 2 min 23 W/m 25,7 km/h (4 Bft) 100,00 %
14.12.2019 10:42 5,3 C 4,4 C 3,9 C 97 % 990,8 hPa 0,2 l/m 0 min 2 min 13 W/m 25,7 km/h (4 Bft) 100,00 %
14.12.2019 10:44 5,4 C 4,4 C 3,9 C 97 % 990,9 hPa 0,0 l/m 0 min 2 min 17 W/m 25,7 km/h (4 Bft) 100,00 %
14.12.2019 10:46 5,4 C 4,4 C 3,9 C 97 % 990,8 hPa 0,0 l/m 0 min 2 min 16 W/m 41,8 km/h (6 Bft) 100,00 %
14.12.2019 10:48 5,4 C 4,4 C 3,9 C 97 % 990,9 hPa 0,0 l/m 0 min 2 min 30 W/m 19,3 km/h (3 Bft) 100,00 %
14.12.2019 10:50 5,4 C 3,9 C 3,9 C 97 % 990,9 hPa 0,0 l/m 0 min 2 min 23 W/m 25,7 km/h (4 Bft) 100,00 %
14.12.2019 10:52 5,3 C 3,9 C 3,3 C 97 % 991,1 hPa 0,0 l/m 0 min 2 min 12 W/m 35,4 km/h (5 Bft) 97,83 %
14.12.2019 10:54 5,3 C 3,9 C 3,3 C 97 % 991,5 hPa 0,2 l/m 0 min 2 min 7 W/m 22,5 km/h (4 Bft) 89,36 %
14.12.2019 10:56 5,2 C 3,9 C 3,3 C 97 % 991,3 hPa 0,0 l/m 0 min 2 min 20 W/m 22,5 km/h (4 Bft) 97,87 %
14.12.2019 10:58 5,2 C 3,9 C 3,3 C 97 % 991,3 hPa 0,0 l/m 0 min 2 min 48 W/m 35,4 km/h (5 Bft) 100,00 %
14.12.2019 11:00 5,2 C 3,9 C 3,3 C 97 % 991,3 hPa 0,2 l/m 0 min 2 min 70 W/m 25,7 km/h (4 Bft) 100,00 %
14.12.2019 11:02 5,1 C 3,9 C 3,3 C 96 % 991,3 hPa 0,0 l/m 0 min 0 min 78 W/m 19,3 km/h (3 Bft) 100,00 %
14.12.2019 11:04 5,1 C 3,9 C 3,3 C 96 % 991,3 hPa 0,0 l/m 0 min 0 min 77 W/m 16,1 km/h (3 Bft) 100,00 %
14.12.2019 11:06 5,1 C 3,9 C 3,9 C 96 % 991,3 hPa 0,0 l/m 0 min 0 min 75 W/m 19,3 km/h (3 Bft) 97,87 %
14.12.2019 11:08 5,1 C 4,4 C 3,9 C 96 % 991,4 hPa 0,0 l/m 0 min 0 min 68 W/m 19,3 km/h (3 Bft) 100,00 %
14.12.2019 11:10 5,1 C 4,4 C 3,9 C 96 % 991,5 hPa 0,0 l/m 0 min 0 min 60 W/m 9,7 km/h (2 Bft) 100,00 %
14.12.2019 11:12 5,1 C 4,4 C 3,9 C 96 % 991,4 hPa 0,0 l/m 0 min 0 min 69 W/m 12,9 km/h (3 Bft) 95,74 %
14.12.2019 11:14 5,1 C 5,0 C 3,9 C 96 % 991,5 hPa 0,0 l/m 0 min 0 min 113 W/m 16,1 km/h (3 Bft) 97,87 %
14.12.2019 11:16 5,2 C 5,0 C 3,9 C 96 % 991,5 hPa 0,0 l/m 0 min 2 min 94 W/m 25,7 km/h (4 Bft) 100,00 %
14.12.2019 11:18 5,2 C 4,4 C 3,9 C 96 % 991,6 hPa 0,0 l/m 0 min 2 min 40 W/m 19,3 km/h (3 Bft) 100,00 %
14.12.2019 11:20 5,2 C 4,4 C 3,9 C 97 % 991,7 hPa 0,0 l/m 0 min 2 min 40 W/m 19,3 km/h (3 Bft) 97,87 %
14.12.2019 11:22 5,2 C 4,4 C 3,9 C 97 % 992,0 hPa 0,2 l/m 0 min 2 min 31 W/m 16,1 km/h (3 Bft) 97,87 %
14.12.2019 11:24 5,2 C 3,9 C 3,3 C 97 % 992,2 hPa 0,2 l/m 0 min 2 min 19 W/m 35,4 km/h (5 Bft) 97,87 %
14.12.2019 11:26 5,0 C 3,3 C 2,8 C 97 % 992,1 hPa 0,2 l/m 0 min 2 min 29 W/m 32,2 km/h (5 Bft) 97,83 %
14.12.2019 11:28 4,8 C 3,3 C 2,8 C 96 % 992,2 hPa 0,0 l/m 0 min 2 min 31 W/m 29,0 km/h (5 Bft) 97,87 %
14.12.2019 11:30 4,6 C 2,8 C 2,8 C 96 % 992,2 hPa 0,0 l/m 0 min 2 min 32 W/m 35,4 km/h (5 Bft) 97,87 %
14.12.2019 11:32 4,6 C 2,8 C 2,8 C 96 % 992,2 hPa 0,0 l/m 0 min 2 min 38 W/m 29,0 km/h (5 Bft) 63,83 %
14.12.2019 11:34 4,4 C 2,8 C 2,8 C 96 % 992,2 hPa 0,0 l/m 0 min 2 min 45 W/m 19,3 km/h (3 Bft) 88,24 %
14.12.2019 11:36 4,3 C 2,8 C 2,8 C 96 % 992,2 hPa 0,0 l/m 0 min 2 min 64 W/m 22,5 km/h (4 Bft) 97,87 %
14.12.2019 11:38 4,3 C 3,3 C 2,8 C 96 % 992,1 hPa 0,0 l/m 0 min 0 min 70 W/m 25,7 km/h (4 Bft) 95,65 %
14.12.2019 11:40 4,3 C 3,3 C 2,8 C 96 % 992,2 hPa 0,0 l/m 0 min 2 min 69 W/m 12,9 km/h (3 Bft) 97,87 %
14.12.2019 11:42 4,2 C 3,3 C 2,8 C 96 % 992,3 hPa 0,0 l/m 0 min 2 min 62 W/m 16,1 km/h (3 Bft) 95,74 %
14.12.2019 11:44 4,3 C 3,3 C 2,8 C 96 % 992,3 hPa 0,0 l/m 0 min 2 min 53 W/m 19,3 km/h (3 Bft) 93,62 %
14.12.2019 11:46 4,2 C 3,3 C 2,8 C 96 % 992,3 hPa 0,0 l/m 0 min 0 min 70 W/m 16,1 km/h (3 Bft) 95,74 %
14.12.2019 11:48 4,3 C 3,3 C 2,8 C 96 % 992,4 hPa 0,0 l/m 0 min 2 min 54 W/m 16,1 km/h (3 Bft) 97,87 %
14.12.2019 11:50 4,3 C 3,3 C 2,8 C 96 % 992,4 hPa 0,0 l/m 0 min 2 min 38 W/m 16,1 km/h (3 Bft) 97,83 %
14.12.2019 11:52 4,3 C 3,3 C 2,8 C 96 % 992,4 hPa 0,0 l/m 0 min 2 min 53 W/m 22,5 km/h (4 Bft) 95,74 %
14.12.2019 11:54 4,3 C 3,9 C 3,3 C 96 % 992,5 hPa 0,0 l/m 0 min 2 min 91 W/m 19,3 km/h (3 Bft) 97,87 %
14.12.2019 11:56 4,3 C 3,9 C 3,3 C 97 % 992,5 hPa 0,0 l/m 0 min 2 min 88 W/m 16,1 km/h (3 Bft) 95,74 %
14.12.2019 11:58 4,4 C 4,4 C 3,3 C 96 % 992,5 hPa 0,0 l/m 2 min 0 min 243 W/m 12,9 km/h (3 Bft) 95,74 %
14.12.2019 12:00 4,5 C 5,0 C 3,3 C 97 % 992,4 hPa 0,0 l/m 2 min 0 min 192 W/m 16,1 km/h (3 Bft) 95,74 %
14.12.2019 12:02 4,6 C 5,6 C 3,3 C 97 % 992,4 hPa 0,0 l/m 2 min 0 min 231 W/m 19,3 km/h (3 Bft) 95,65 %
14.12.2019 12:04 4,6 C 5,6 C 3,3 C 97 % 992,4 hPa 0,0 l/m 2 min 0 min 254 W/m 22,5 km/h (4 Bft) 95,74 %
14.12.2019 12:08 4,8 C 5,6 C 3,9 C 97 % 992,4 hPa 0,0 l/m 4 min 0 min 238 W/m 22,5 km/h (4 Bft) 95,74 %
14.12.2019 12:10 4,9 C 5,6 C 3,9 C 97 % 992,3 hPa 0,0 l/m 2 min 0 min 165 W/m 22,5 km/h (4 Bft) 93,62 %
14.12.2019 12:12 5,1 C 5,0 C 3,9 C 97 % 992,5 hPa 0,0 l/m 0 min 0 min 110 W/m 38,6 km/h (5 Bft) 95,65 %
14.12.2019 12:14 5,1 C 5,0 C 3,9 C 97 % 992,5 hPa 0,0 l/m 0 min 0 min 84 W/m 16,1 km/h (3 Bft) 93,62 %
14.12.2019 12:16 5,2 C 5,0 C 3,9 C 97 % 992,5 hPa 0,0 l/m 0 min 0 min 88 W/m 16,1 km/h (3 Bft) 95,74 %
14.12.2019 12:18 5,2 C 5,0 C 3,9 C 97 % 992,5 hPa 0,0 l/m 0 min 0 min 101 W/m 32,2 km/h (5 Bft) 95,74 %
14.12.2019 12:20 5,3 C 5,0 C 3,9 C 97 % 992,7 hPa 0,0 l/m 0 min 0 min 115 W/m 25,7 km/h (4 Bft) 95,74 %
14.12.2019 12:22 5,3 C 5,0 C 4,4 C 97 % 992,7 hPa 0,0 l/m 0 min 0 min 127 W/m 16,1 km/h (3 Bft) 97,87 %
14.12.2019 12:24 5,4 C 5,0 C 4,4 C 97 % 992,7 hPa 0,0 l/m 0 min 0 min 130 W/m 25,7 km/h (4 Bft) 95,65 %
14.12.2019 12:26 5,5 C 5,6 C 4,4 C 97 % 992,8 hPa 0,0 l/m 0 min 0 min 137 W/m 16,1 km/h (3 Bft) 93,62 %
14.12.2019 12:28 5,6 C 6,1 C 4,4 C 97 % 992,8 hPa 0,0 l/m 2 min 0 min 186 W/m 35,4 km/h (5 Bft) 95,74 %
14.12.2019 12:30 5,6 C 6,7 C 4,4 C 97 % 992,9 hPa 0,0 l/m 2 min 0 min 267 W/m 19,3 km/h (3 Bft) 95,74 %
14.12.2019 12:32 5,7 C 7,2 C 4,4 C 97 % 993,1 hPa 0,0 l/m 2 min 0 min 164 W/m 19,3 km/h (3 Bft) 95,74 %
14.12.2019 12:34 5,7 C 7,2 C 4,4 C 97 % 993,0 hPa 0,0 l/m 2 min 0 min 289 W/m 32,2 km/h (5 Bft) 95,74 %
14.12.2019 12:36 5,8 C 6,7 C 4,4 C 96 % 993,1 hPa 0,0 l/m 2 min 0 min 261 W/m 22,5 km/h (4 Bft) 97,83 %
14.12.2019 12:38 5,9 C 6,7 C 4,4 C 96 % 993,3 hPa 0,0 l/m 2 min 0 min 157 W/m 19,3 km/h (3 Bft) 97,87 %
14.12.2019 12:40 6,0 C 6,7 C 4,4 C 96 % 993,2 hPa 0,2 l/m 2 min 0 min 244 W/m 35,4 km/h (5 Bft) 97,87 %
14.12.2019 12:42 6,1 C 5,6 C 4,4 C 96 % 993,2 hPa 0,0 l/m 0 min 0 min 142 W/m 19,3 km/h (3 Bft) 95,74 %
14.12.2019 12:44 6,1 C 5,6 C 4,4 C 95 % 993,1 hPa 0,0 l/m 0 min 0 min 75 W/m 19,3 km/h (3 Bft) 97,87 %
14.12.2019 12:46 6,1 C 5,6 C 4,4 C 95 % 993,1 hPa 0,0 l/m 0 min 0 min 108 W/m 32,2 km/h (5 Bft) 97,87 %
14.12.2019 12:48 6,1 C 6,1 C 4,4 C 95 % 993,1 hPa 0,0 l/m 2 min 0 min 161 W/m 25,7 km/h (4 Bft) 97,83 %
14.12.2019 12:50 6,2 C 7,8 C 4,4 C 94 % 993,1 hPa 0,0 l/m 2 min 0 min 253 W/m 16,1 km/h (3 Bft) 97,87 %
14.12.2019 12:52 6,2 C 8,3 C 4,4 C 94 % 993,2 hPa 0,0 l/m 2 min 0 min 318 W/m 19,3 km/h (3 Bft) 93,62 %
14.12.2019 12:54 6,3 C 7,2 C 4,4 C 94 % 993,3 hPa 0,0 l/m 2 min 0 min 276 W/m 22,5 km/h (4 Bft) 97,87 %
14.12.2019 12:56 6,4 C 6,1 C 4,4 C 94 % 993,3 hPa 0,0 l/m 0 min 0 min 114 W/m 29,0 km/h (5 Bft) 97,87 %
14.12.2019 12:58 6,4 C 6,1 C 4,4 C 94 % 993,1 hPa 0,0 l/m 0 min 0 min 99 W/m 16,1 km/h (3 Bft) 97,87 %
14.12.2019 13:00 6,4 C 5,6 C 4,4 C 93 % 993,1 hPa 0,0 l/m 0 min 0 min 118 W/m 19,3 km/h (3 Bft) 97,83 %
14.12.2019 13:02 6,4 C 5,6 C 4,4 C 92 % 993,3 hPa 0,0 l/m 0 min 0 min 123 W/m 16,1 km/h (3 Bft) 97,87 %
14.12.2019 13:04 6,4 C 5,6 C 4,4 C 92 % 993,4 hPa 0,0 l/m 0 min 0 min 126 W/m 25,7 km/h (4 Bft) 97,87 %
14.12.2019 13:06 6,4 C 5,6 C 4,4 C 91 % 993,4 hPa 0,0 l/m 0 min 0 min 123 W/m 22,5 km/h (4 Bft) 95,74 %
14.12.2019 13:08 6,5 C 5,6 C 4,4 C 90 % 993,4 hPa 0,0 l/m 0 min 0 min 125 W/m 22,5 km/h (4 Bft) 97,87 %
14.12.2019 13:10 6,5 C 5,6 C 4,4 C 90 % 993,3 hPa 0,0 l/m 0 min 0 min 132 W/m 29,0 km/h (5 Bft) 97,87 %
14.12.2019 13:12 6,5 C 6,1 C 4,4 C 89 % 993,3 hPa 0,0 l/m 2 min 0 min 161 W/m 22,5 km/h (4 Bft) 100,00 %
14.12.2019 13:14 6,5 C 6,7 C 4,4 C 89 % 993,3 hPa 0,0 l/m 0 min 0 min 144 W/m 25,7 km/h (4 Bft) 100,00 %
14.12.2019 13:16 6,5 C 6,1 C 4,4 C 88 % 993,4 hPa 0,0 l/m 2 min 0 min 151 W/m 25,7 km/h (4 Bft) 100,00 %
14.12.2019 13:18 6,6 C 6,1 C 4,4 C 88 % 993,5 hPa 0,0 l/m 0 min 0 min 100 W/m 22,5 km/h (4 Bft) 100,00 %
14.12.2019 13:20 6,6 C 6,1 C 4,4 C 88 % 993,5 hPa 0,0 l/m 0 min 0 min 99 W/m 29,0 km/h (5 Bft) 97,87 %
14.12.2019 13:22 6,6 C 6,7 C 4,4 C 87 % 993,4 hPa 0,0 l/m 2 min 0 min 153 W/m 25,7 km/h (4 Bft) 100,00 %
14.12.2019 13:24 6,6 C 6,7 C 4,4 C 86 % 993,4 hPa 0,0 l/m 0 min 0 min 126 W/m 16,1 km/h (3 Bft) 100,00 %
14.12.2019 13:26 6,6 C 7,2 C 4,4 C 86 % 993,4 hPa 0,0 l/m 0 min 0 min 130 W/m 29,0 km/h (5 Bft) 100,00 %
14.12.2019 13:28 6,6 C 7,2 C 4,4 C 86 % 993,5 hPa 0,0 l/m 2 min 0 min 168 W/m 22,5 km/h (4 Bft) 100,00 %
14.12.2019 13:30 6,7 C 7,2 C 4,4 C 86 % 993,5 hPa 0,0 l/m 0 min 0 min 122 W/m 22,5 km/h (4 Bft) 100,00 %
14.12.2019 13:32 6,7 C 6,7 C 4,4 C 86 % 993,6 hPa 0,0 l/m 0 min 0 min 89 W/m 19,3 km/h (3 Bft) 93,62 %
14.12.2019 13:34 6,7 C 6,7 C 4,4 C 86 % 993,5 hPa 0,0 l/m 0 min 0 min 83 W/m 25,7 km/h (4 Bft) 97,83 %
14.12.2019 13:36 6,7 C 6,7 C 4,4 C 86 % 993,5 hPa 0,0 l/m 0 min 0 min 89 W/m 16,1 km/h (3 Bft) 95,74 %
14.12.2019 13:38 6,7 C 6,7 C 4,4 C 86 % 993,5 hPa 0,0 l/m 0 min 0 min 128 W/m 12,9 km/h (3 Bft) 100,00 %
14.12.2019 13:40 6,7 C 7,2 C 4,4 C 86 % 993,5 hPa 0,0 l/m 2 min 0 min 140 W/m 16,1 km/h (3 Bft) 100,00 %
14.12.2019 13:42 6,7 C 7,2 C 4,4 C 86 % 993,5 hPa 0,0 l/m 0 min 0 min 113 W/m 19,3 km/h (3 Bft) 97,87 %
14.12.2019 13:44 6,7 C 7,2 C 4,4 C 86 % 993,4 hPa 0,0 l/m 0 min 0 min 114 W/m 16,1 km/h (3 Bft) 100,00 %
14.12.2019 13:46 6,7 C 7,2 C 4,4 C 86 % 993,4 hPa 0,0 l/m 0 min 0 min 110 W/m 22,5 km/h (4 Bft) 100,00 %
14.12.2019 13:48 6,7 C 7,2 C 4,4 C 86 % 993,5 hPa 0,0 l/m 0 min 0 min 111 W/m 19,3 km/h (3 Bft) 100,00 %
14.12.2019 13:50 6,7 C 6,7 C 4,4 C 85 % 993,6 hPa 0,0 l/m 0 min 0 min 94 W/m 25,7 km/h (4 Bft) 100,00 %
14.12.2019 13:52 6,7 C 6,7 C 4,4 C 85 % 993,6 hPa 0,0 l/m 0 min 0 min 85 W/m 19,3 km/h (3 Bft) 97,87 %
14.12.2019 13:54 6,7 C 6,7 C 4,4 C 85 % 993,7 hPa 0,0 l/m 0 min 0 min 72 W/m 22,5 km/h (4 Bft) 97,87 %
14.12.2019 13:56 6,7 C 6,7 C 4,4 C 85 % 993,7 hPa 0,0 l/m 0 min 0 min 76 W/m 22,5 km/h (4 Bft) 100,00 %
14.12.2019 13:58 6,7 C 6,7 C 4,4 C 85 % 993,7 hPa 0,0 l/m 0 min 0 min 75 W/m 22,5 km/h (4 Bft) 100,00 %
14.12.2019 14:00 6,7 C 6,7 C 4,4 C 84 % 993,8 hPa 0,0 l/m 0 min 0 min 61 W/m 29,0 km/h (5 Bft) 100,00 %
14.12.2019 14:02 6,7 C 6,7 C 4,4 C 84 % 993,7 hPa 0,0 l/m 0 min 0 min 66 W/m 22,5 km/h (4 Bft) 100,00 %
14.12.2019 14:04 6,7 C 6,7 C 4,4 C 84 % 993,6 hPa 0,0 l/m 0 min 0 min 61 W/m 22,5 km/h (4 Bft) 100,00 %
14.12.2019 14:06 6,8 C 6,7 C 4,4 C 84 % 993,6 hPa 0,0 l/m 0 min 0 min 58 W/m 19,3 km/h (3 Bft) 100,00 %
14.12.2019 14:08 6,8 C 6,7 C 4,4 C 84 % 993,7 hPa 0,0 l/m 0 min 0 min 61 W/m 16,1 km/h (3 Bft) 100,00 %
14.12.2019 14:10 6,8 C 6,7 C 4,4 C 84 % 993,6 hPa 0,0 l/m 0 min 0 min 57 W/m 22,5 km/h (4 Bft) 100,00 %
14.12.2019 14:12 6,8 C 6,7 C 4,4 C 84 % 993,7 hPa 0,0 l/m 0 min 0 min 51 W/m 16,1 km/h (3 Bft) 97,87 %
14.12.2019 14:14 6,8 C 6,7 C 4,4 C 84 % 993,6 hPa 0,0 l/m 0 min 0 min 44 W/m 25,7 km/h (4 Bft) 100,00 %
14.12.2019 14:16 6,8 C 6,7 C 4,4 C 84 % 993,6 hPa 0,0 l/m 0 min 0 min 46 W/m 22,5 km/h (4 Bft) 100,00 %
14.12.2019 14:18 6,8 C 6,7 C 4,4 C 84 % 993,6 hPa 0,0 l/m 0 min 0 min 45 W/m 22,5 km/h (4 Bft) 95,74 %
14.12.2019 14:20 6,8 C 6,7 C 4,4 C 84 % 993,6 hPa 0,0 l/m 0 min 0 min 40 W/m 19,3 km/h (3 Bft) 97,83 %
14.12.2019 14:22 6,8 C 6,7 C 4,4 C 84 % 993,6 hPa 0,0 l/m 0 min 0 min 36 W/m 22,5 km/h (4 Bft) 97,87 %
14.12.2019 14:24 6,8 C 6,7 C 5,0 C 84 % 993,6 hPa 0,0 l/m 0 min 0 min 35 W/m 29,0 km/h (5 Bft) 95,74 %
14.12.2019 14:26 6,9 C 6,7 C 5,0 C 84 % 993,6 hPa 0,0 l/m 0 min 0 min 34 W/m 35,4 km/h (5 Bft) 95,74 %
14.12.2019 14:28 6,9 C 6,7 C 5,0 C 84 % 993,6 hPa 0,0 l/m 0 min 0 min 33 W/m 29,0 km/h (5 Bft) 93,62 %
14.12.2019 14:30 6,9 C 6,7 C 5,0 C 84 % 993,6 hPa 0,0 l/m 0 min 0 min 31 W/m 22,5 km/h (4 Bft) 93,62 %
14.12.2019 14:32 6,9 C 6,7 C 5,0 C 84 % 993,6 hPa 0,0 l/m 0 min 0 min 30 W/m 22,5 km/h (4 Bft) 97,83 %
14.12.2019 14:34 6,9 C 6,7 C 5,0 C 84 % 993,6 hPa 0,0 l/m 0 min 0 min 29 W/m 25,7 km/h (4 Bft) 95,74 %
14.12.2019 14:36 7,0 C 6,7 C 5,0 C 84 % 993,6 hPa 0,0 l/m 0 min 2 min 26 W/m 32,2 km/h (5 Bft) 95,74 %
14.12.2019 14:38 7,0 C 6,1 C 5,0 C 84 % 993,5 hPa 0,0 l/m 0 min 2 min 20 W/m 22,5 km/h (4 Bft) 95,74 %
14.12.2019 14:40 7,1 C 5,6 C 4,4 C 85 % 993,5 hPa 0,0 l/m 0 min 2 min 17 W/m 29,0 km/h (5 Bft) 95,74 %
14.12.2019 14:42 7,1 C 5,6 C 4,4 C 85 % 993,5 hPa 0,0 l/m 0 min 2 min 18 W/m 32,2 km/h (5 Bft) 95,74 %
14.12.2019 14:44 7,1 C 5,6 C 4,4 C 85 % 993,5 hPa 0,0 l/m 0 min 2 min 18 W/m 41,8 km/h (6 Bft) 93,48 %
14.12.2019 14:46 7,1 C 5,0 C 4,4 C 86 % 993,6 hPa 0,0 l/m 0 min 2 min 13 W/m 22,5 km/h (4 Bft) 93,62 %
14.12.2019 14:48 7,1 C 5,0 C 4,4 C 86 % 993,5 hPa 0,0 l/m 0 min 2 min 13 W/m 29,0 km/h (5 Bft) 93,62 %
14.12.2019 14:50 7,1 C 5,0 C 4,4 C 87 % 993,5 hPa 0,0 l/m 0 min 2 min 17 W/m 22,5 km/h (4 Bft) 87,23 %
14.12.2019 14:52 7,1 C 5,0 C 4,4 C 87 % 993,5 hPa 0,0 l/m 0 min 2 min 18 W/m 22,5 km/h (4 Bft) 93,62 %
14.12.2019 14:54 7,0 C 5,0 C 4,4 C 87 % 993,5 hPa 0,0 l/m 0 min 2 min 18 W/m 25,7 km/h (4 Bft) 93,62 %
14.12.2019 14:56 7,0 C 5,0 C 4,4 C 88 % 993,5 hPa 0,0 l/m 0 min 2 min 18 W/m 19,3 km/h (3 Bft) 95,65 %
14.12.2019 14:58 6,9 C 5,0 C 4,4 C 88 % 993,6 hPa 0,2 l/m 0 min 2 min 16 W/m 35,4 km/h (5 Bft) 93,62 %
14.12.2019 15:00 6,9 C 5,0 C 4,4 C 88 % 993,5 hPa 0,0 l/m 0 min 2 min 14 W/m 25,7 km/h (4 Bft) 93,62 %
14.12.2019 15:02 6,9 C 5,0 C 4,4 C 88 % 993,6 hPa 0,0 l/m 0 min 2 min 10 W/m 19,3 km/h (3 Bft) 97,87 %
14.12.2019 15:04 6,9 C 5,0 C 4,4 C 89 % 993,7 hPa 0,0 l/m 0 min 2 min 9 W/m 54,7 km/h (7 Bft) 95,74 %
14.12.2019 15:06 6,8 C 5,0 C 4,4 C 89 % 993,8 hPa 0,0 l/m 0 min 2 min 9 W/m 25,7 km/h (4 Bft) 97,83 %
14.12.2019 15:08 6,8 C 5,0 C 4,4 C 89 % 993,8 hPa 0,2 l/m 0 min 2 min 10 W/m 41,8 km/h (6 Bft) 95,74 %
14.12.2019 15:10 6,8 C 4,4 C 4,4 C 89 % 993,9 hPa 0,0 l/m 0 min 2 min 10 W/m 38,6 km/h (5 Bft) 97,87 %
14.12.2019 15:12 6,7 C 4,4 C 4,4 C 90 % 993,9 hPa 0,0 l/m 0 min 2 min 10 W/m 25,7 km/h (4 Bft) 97,87 %
14.12.2019 15:14 6,7 C 4,4 C 3,9 C 90 % 993,9 hPa 0,0 l/m 0 min 2 min 9 W/m 29,0 km/h (5 Bft) 95,74 %
14.12.2019 15:16 6,6 C 4,4 C 3,9 C 90 % 993,8 hPa 0,0 l/m 0 min 2 min 11 W/m 29,0 km/h (5 Bft) 97,87 %
14.12.2019 15:18 6,6 C 4,4 C 3,9 C 90 % 993,8 hPa 0,2 l/m 0 min 2 min 11 W/m 32,2 km/h (5 Bft) 97,83 %
14.12.2019 15:20 6,5 C 4,4 C 3,9 C 91 % 993,8 hPa 0,0 l/m 0 min 2 min 14 W/m 32,2 km/h (5 Bft) 97,87 %
14.12.2019 15:22 6,4 C 4,4 C 3,9 C 91 % 993,8 hPa 0,0 l/m 0 min 2 min 22 W/m 22,5 km/h (4 Bft) 95,74 %
14.12.2019 15:24 6,3 C 4,4 C 3,9 C 91 % 993,8 hPa 0,2 l/m 0 min 2 min 18 W/m 29,0 km/h (5 Bft) 95,74 %
14.12.2019 15:26 6,3 C 4,4 C 3,9 C 91 % 993,8 hPa 0,0 l/m 0 min 2 min 11 W/m 41,8 km/h (6 Bft) 95,74 %
14.12.2019 15:28 6,3 C 4,4 C 3,9 C 92 % 993,7 hPa 0,0 l/m 0 min 2 min 5 W/m 22,5 km/h (4 Bft) 97,87 %
14.12.2019 15:30 6,2 C 4,4 C 3,9 C 92 % 993,7 hPa 0,0 l/m 0 min 2 min 7 W/m 22,5 km/h (4 Bft) 95,74 %
14.12.2019 15:32 6,2 C 4,4 C 3,9 C 92 % 993,7 hPa 0,0 l/m 0 min 2 min 5 W/m 25,7 km/h (4 Bft) 97,83 %
14.12.2019 15:34 6,2 C 4,4 C 3,9 C 92 % 993,6 hPa 0,0 l/m 0 min 2 min 6 W/m 22,5 km/h (4 Bft) 97,87 %
14.12.2019 15:36 6,1 C 4,4 C 3,9 C 92 % 993,6 hPa 0,0 l/m 0 min 2 min 7 W/m 25,7 km/h (4 Bft) 97,87 %
14.12.2019 15:38 6,1 C 4,4 C 3,9 C 93 % 993,6 hPa 0,0 l/m 0 min 2 min 7 W/m 22,5 km/h (4 Bft) 95,74 %
14.12.2019 15:40 6,1 C 4,4 C 3,9 C 93 % 993,5 hPa 0,0 l/m 0 min 2 min 6 W/m 25,7 km/h (4 Bft) 97,87 %
14.12.2019 15:42 6,1 C 4,4 C 3,9 C 93 % 993,5 hPa 0,0 l/m 0 min 2 min 5 W/m 22,5 km/h (4 Bft) 97,83 %
14.12.2019 15:44 6,1 C 4,4 C 3,9 C 93 % 993,5 hPa 0,0 l/m 0 min 2 min 5 W/m 32,2 km/h (5 Bft) 97,87 %
14.12.2019 15:46 6,1 C 4,4 C 3,9 C 93 % 993,5 hPa 0,0 l/m 0 min 2 min 5 W/m 32,2 km/h (5 Bft) 97,87 %
14.12.2019 15:48 6,0 C 4,4 C 3,9 C 93 % 993,5 hPa 0,0 l/m 0 min 2 min 5 W/m 29,0 km/h (5 Bft) 97,87 %
14.12.2019 15:50 6,0 C 4,4 C 3,9 C 94 % 993,5 hPa 0,0 l/m 0 min 2 min 6 W/m 25,7 km/h (4 Bft) 95,74 %
14.12.2019 15:52 6,0 C 4,4 C 3,9 C 94 % 993,5 hPa 0,0 l/m 0 min 2 min 5 W/m 16,1 km/h (3 Bft) 97,87 %
14.12.2019 15:54 6,0 C 4,4 C 3,9 C 94 % 993,5 hPa 0,0 l/m 0 min 2 min 5 W/m 25,7 km/h (4 Bft) 97,83 %
14.12.2019 15:56 6,0 C 4,4 C 3,9 C 94 % 993,6 hPa 0,2 l/m 0 min 2 min 3 W/m 25,7 km/h (4 Bft) 97,87 %
14.12.2019 15:58 6,0 C 4,4 C 3,9 C 94 % 993,6 hPa 0,0 l/m 0 min 2 min 0 W/m 51,5 km/h (7 Bft) 97,87 %
14.12.2019 16:00 6,0 C 4,4 C 3,9 C 94 % 993,6 hPa 0,0 l/m 0 min 2 min 0 W/m 25,7 km/h (4 Bft) 95,74 %
14.12.2019 16:02 6,0 C 4,4 C 3,9 C 94 % 993,6 hPa 0,2 l/m 0 min 2 min 0 W/m 16,1 km/h (3 Bft) 97,87 %
14.12.2019 16:04 6,0 C 4,4 C 3,9 C 94 % 993,5 hPa 0,0 l/m 0 min 2 min 0 W/m 29,0 km/h (5 Bft) 95,74 %
14.12.2019 16:06 6,0 C 4,4 C 4,4 C 94 % 993,5 hPa 0,2 l/m 0 min 2 min 0 W/m 22,5 km/h (4 Bft) 97,83 %
14.12.2019 16:08 6,0 C 4,4 C 4,4 C 95 % 993,6 hPa 0,0 l/m 0 min 2 min 0 W/m 29,0 km/h (5 Bft) 97,87 %
14.12.2019 16:10 6,0 C 4,4 C 4,4 C 95 % 993,5 hPa 0,0 l/m 0 min 2 min 0 W/m 22,5 km/h (4 Bft) 97,87 %
14.12.2019 16:12 6,0 C 4,4 C 4,4 C 95 % 993,5 hPa 0,0 l/m 0 min 2 min 2 W/m 25,7 km/h (4 Bft) 97,87 %
14.12.2019 16:14 6,0 C 5,0 C 4,4 C 95 % 993,5 hPa 0,0 l/m 0 min 2 min 0 W/m 25,7 km/h (4 Bft) 95,74 %
14.12.2019 16:16 6,1 C 5,0 C 4,4 C 95 % 993,3 hPa 0,2 l/m 0 min 2 min 0 W/m 25,7 km/h (4 Bft) 97,83 %
14.12.2019 16:18 6,1 C 5,0 C 4,4 C 95 % 993,5 hPa 0,0 l/m 0 min 2 min 0 W/m 29,0 km/h (5 Bft) 97,87 %
14.12.2019 16:20 6,1 C 5,0 C 4,4 C 95 % 993,5 hPa 0,0 l/m 0 min 2 min 0 W/m 29,0 km/h (5 Bft) 97,87 %
14.12.2019 16:22 6,1 C 5,0 C 4,4 C 96 % 993,5 hPa 0,0 l/m 0 min 2 min 0 W/m 35,4 km/h (5 Bft) 97,87 %
14.12.2019 16:24 6,1 C 5,0 C 4,4 C 96 % 993,6 hPa 0,0 l/m 0 min 2 min 0 W/m 22,5 km/h (4 Bft) 97,87 %
14.12.2019 16:26 6,2 C 5,0 C 4,4 C 96 % 993,5 hPa 0,0 l/m 0 min 2 min 0 W/m 29,0 km/h (5 Bft) 100,00 %
14.12.2019 16:28 6,2 C 5,0 C 4,4 C 96 % 993,7 hPa 0,0 l/m 0 min 2 min 0 W/m 48,3 km/h (6 Bft) 100,00 %
14.12.2019 16:30 6,3 C 5,0 C 4,4 C 96 % 993,9 hPa 0,0 l/m 0 min 2 min 0 W/m 32,2 km/h (5 Bft) 97,87 %
14.12.2019 16:32 6,3 C 5,0 C 4,4 C 96 % 993,7 hPa 0,0 l/m 0 min 2 min 0 W/m 22,5 km/h (4 Bft) 100,00 %
14.12.2019 16:34 6,3 C 5,0 C 4,4 C 96 % 993,9 hPa 0,2 l/m 0 min 2 min 0 W/m 32,2 km/h (5 Bft) 97,87 %
14.12.2019 16:36 6,3 C 5,0 C 4,4 C 96 % 994,0 hPa 0,0 l/m 0 min 2 min 0 W/m 38,6 km/h (5 Bft) 100,00 %
14.12.2019 16:38 6,3 C 4,4 C 4,4 C 96 % 994,0 hPa 0,0 l/m 0 min 2 min 0 W/m 35,4 km/h (5 Bft) 100,00 %
14.12.2019 16:40 6,2 C 4,4 C 3,9 C 96 % 994,2 hPa 0,2 l/m 0 min 2 min 0 W/m 48,3 km/h (6 Bft) 100,00 %
14.12.2019 16:42 6,1 C 4,4 C 3,9 C 95 % 994,2 hPa 0,0 l/m 0 min 2 min 0 W/m 38,6 km/h (5 Bft) 100,00 %
14.12.2019 16:44 5,9 C 4,4 C 3,9 C 95 % 994,3 hPa 0,0 l/m 0 min 2 min 0 W/m 32,2 km/h (5 Bft) 95,74 %
14.12.2019 16:46 5,9 C 4,4 C 3,9 C 95 % 994,1 hPa 0,0 l/m 0 min 2 min 0 W/m 22,5 km/h (4 Bft) 95,74 %
14.12.2019 16:48 5,8 C 4,4 C 3,9 C 95 % 993,9 hPa 0,2 l/m 0 min 2 min 0 W/m 22,5 km/h (4 Bft) 100,00 %
14.12.2019 16:50 5,8 C 4,4 C 3,9 C 95 % 994,0 hPa 0,0 l/m 0 min 0 min 0 W/m 22,5 km/h (4 Bft) 97,87 %
14.12.2019 16:52 5,8 C 4,4 C 3,9 C 95 % 994,2 hPa 0,0 l/m 0 min 0 min 0 W/m 38,6 km/h (5 Bft) 100,00 %
14.12.2019 16:54 5,8 C 4,4 C 3,9 C 95 % 994,3 hPa 0,0 l/m 0 min 0 min 0 W/m 35,4 km/h (5 Bft) 97,87 %
14.12.2019 16:56 5,8 C 4,4 C 3,9 C 95 % 994,1 hPa 0,0 l/m 0 min 0 min 0 W/m 32,2 km/h (5 Bft) 100,00 %
14.12.2019 16:58 5,8 C 4,4 C 3,9 C 95 % 994,1 hPa 0,0 l/m 0 min 0 min 0 W/m 22,5 km/h (4 Bft) 97,87 %
14.12.2019 17:00 5,8 C 4,4 C 3,9 C 95 % 994,1 hPa 0,0 l/m 0 min 0 min 0 W/m 29,0 km/h (5 Bft) 93,62 %
14.12.2019 17:02 5,7 C 4,4 C 3,9 C 95 % 994,1 hPa 0,0 l/m 0 min 0 min 0 W/m 22,5 km/h (4 Bft) 95,74 %
14.12.2019 17:04 5,7 C 4,4 C 3,9 C 95 % 994,2 hPa 0,0 l/m 0 min 0 min 0 W/m 25,7 km/h (4 Bft) 91,30 %
14.12.2019 17:06 5,8 C 4,4 C 3,9 C 95 % 994,2 hPa 0,0 l/m 0 min 0 min 0 W/m 38,6 km/h (5 Bft) 95,74 %
14.12.2019 17:08 5,8 C 4,4 C 3,9 C 94 % 994,3 hPa 0,0 l/m 0 min 0 min 0 W/m 32,2 km/h (5 Bft) 97,87 %
14.12.2019 17:10 5,8 C 5,0 C 4,4 C 94 % 994,5 hPa 0,0 l/m 0 min 0 min 0 W/m 45,1 km/h (6 Bft) 97,87 %
14.12.2019 17:12 5,9 C 5,0 C 4,4 C 94 % 994,4 hPa 0,0 l/m 0 min 0 min 0 W/m 25,7 km/h (4 Bft) 95,74 %
14.12.2019 17:14 5,9 C 5,0 C 4,4 C 94 % 994,6 hPa 0,0 l/m 0 min 0 min 0 W/m 25,7 km/h (4 Bft) 95,65 %
14.12.2019 17:16 5,9 C 5,0 C 4,4 C 94 % 994,6 hPa 0,0 l/m 0 min 0 min 0 W/m 22,5 km/h (4 Bft) 97,87 %
14.12.2019 17:18 5,9 C 5,0 C 3,9 C 94 % 994,6 hPa 0,0 l/m 0 min 0 min 0 W/m 25,7 km/h (4 Bft) 97,87 %
14.12.2019 17:20 5,9 C 4,4 C 3,9 C 94 % 994,8 hPa 0,0 l/m 0 min 0 min 0 W/m 35,4 km/h (5 Bft) 97,87 %
14.12.2019 17:22 5,9 C 4,4 C 3,9 C 94 % 994,9 hPa 0,0 l/m 0 min 0 min 0 W/m 32,2 km/h (5 Bft) 89,36 %
14.12.2019 17:24 5,9 C 4,4 C 3,9 C 93 % 995,0 hPa 0,0 l/m 0 min 0 min 0 W/m 25,7 km/h (4 Bft) 97,87 %
14.12.2019 17:26 5,9 C 4,4 C 3,9 C 93 % 994,9 hPa 0,0 l/m 0 min 0 min 0 W/m 35,4 km/h (5 Bft) 97,83 %
14.12.2019 17:28 5,9 C 4,4 C 3,9 C 93 % 995,1 hPa 0,0 l/m 0 min 0 min 0 W/m 29,0 km/h (5 Bft) 97,87 %
14.12.2019 17:30 5,9 C 4,4 C 3,9 C 92 % 995,2 hPa 0,0 l/m 0 min 0 min 0 W/m 35,4 km/h (5 Bft) 95,74 %
14.12.2019 17:32 5,9 C 4,4 C 3,9 C 92 % 995,2 hPa 0,0 l/m 0 min 0 min 0 W/m 25,7 km/h (4 Bft) 95,74 %
14.12.2019 17:34 5,9 C 4,4 C 3,9 C 92 % 995,4 hPa 0,0 l/m 0 min 0 min 0 W/m 41,8 km/h (6 Bft) 95,74 %
14.12.2019 17:36 5,9 C 4,4 C 3,9 C 91 % 995,4 hPa 0,0 l/m 0 min 0 min 0 W/m 35,4 km/h (5 Bft) 95,74 %
14.12.2019 17:38 5,9 C 4,4 C 3,9 C 91 % 995,5 hPa 0,0 l/m 0 min 0 min 0 W/m 35,4 km/h (5 Bft) 95,65 %
14.12.2019 17:40 5,9 C 4,4 C 3,9 C 91 % 995,5 hPa 0,0 l/m 0 min 0 min 0 W/m 41,8 km/h (6 Bft) 93,62 %
14.12.2019 17:42 5,9 C 4,4 C 3,9 C 90 % 995,4 hPa 0,0 l/m 0 min 0 min 0 W/m 29,0 km/h (5 Bft) 97,87 %
14.12.2019 17:44 5,9 C 4,4 C 3,9 C 90 % 995,6 hPa 0,0 l/m 0 min 0 min 0 W/m 32,2 km/h (5 Bft) 97,87 %
14.12.2019 17:46 5,9 C 4,4 C 3,9 C 90 % 995,6 hPa 0,0 l/m 0 min 0 min 0 W/m 19,3 km/h (3 Bft) 89,36 %
14.12.2019 17:48 5,9 C 4,4 C 3,9 C 90 % 995,7 hPa 0,0 l/m 0 min 0 min 0 W/m 29,0 km/h (5 Bft) 97,87 %
14.12.2019 17:50 5,9 C 4,4 C 3,9 C 89 % 995,8 hPa 0,0 l/m 0 min 0 min 0 W/m 25,7 km/h (4 Bft) 97,83 %
14.12.2019 17:52 5,9 C 4,4 C 3,9 C 89 % 995,7 hPa 0,0 l/m 0 min 0 min 0 W/m 38,6 km/h (5 Bft) 93,62 %
14.12.2019 17:54 5,9 C 4,4 C 3,9 C 89 % 995,9 hPa 0,0 l/m 0 min 0 min 0 W/m 32,2 km/h (5 Bft) 95,74 %
14.12.2019 17:56 5,9 C 4,4 C 3,9 C 89 % 995,9 hPa 0,0 l/m 0 min 0 min 0 W/m 35,4 km/h (5 Bft) 95,74 %
14.12.2019 17:58 5,9 C 4,4 C 3,9 C 89 % 995,9 hPa 0,0 l/m 0 min 0 min 0 W/m 25,7 km/h (4 Bft) 97,87 %
14.12.2019 18:00 5,9 C 4,4 C 3,3 C 88 % 996,1 hPa 0,0 l/m 0 min 0 min 0 W/m 29,0 km/h (5 Bft) 97,87 %
14.12.2019 18:02 5,8 C 4,4 C 3,3 C 88 % 996,2 hPa 0,0 l/m 0 min 0 min 0 W/m 19,3 km/h (3 Bft) 97,83 %
14.12.2019 18:04 5,8 C 4,4 C 3,3 C 88 % 996,2 hPa 0,0 l/m 0 min 0 min 0 W/m 29,0 km/h (5 Bft) 97,87 %
14.12.2019 18:08 5,8 C 4,4 C 3,9 C 88 % 996,3 hPa 0,0 l/m 0 min 0 min 0 W/m 45,1 km/h (6 Bft) 97,89 %
14.12.2019 18:10 5,9 C 4,4 C 3,9 C 87 % 996,4 hPa 0,0 l/m 0 min 0 min 0 W/m 29,0 km/h (5 Bft) 100,00 %
14.12.2019 18:12 5,9 C 4,4 C 3,9 C 87 % 996,3 hPa 0,0 l/m 0 min 0 min 0 W/m 29,0 km/h (5 Bft) 100,00 %
14.12.2019 18:14 5,9 C 4,4 C 3,3 C 87 % 996,4 hPa 0,0 l/m 0 min 0 min 0 W/m 32,2 km/h (5 Bft) 100,00 %
14.12.2019 18:16 5,9 C 4,4 C 3,3 C 86 % 996,6 hPa 0,0 l/m 0 min 0 min 0 W/m 35,4 km/h (5 Bft) 100,00 %
14.12.2019 18:18 5,9 C 4,4 C 3,3 C 86 % 996,7 hPa 0,0 l/m 0 min 0 min 0 W/m 25,7 km/h (4 Bft) 100,00 %
14.12.2019 18:20 5,9 C 4,4 C 3,3 C 86 % 996,7 hPa 0,0 l/m 0 min 0 min 0 W/m 16,1 km/h (3 Bft) 100,00 %
14.12.2019 18:22 5,9 C 5,0 C 3,3 C 85 % 996,7 hPa 0,0 l/m 0 min 0 min 0 W/m 35,4 km/h (5 Bft) 97,83 %
14.12.2019 18:24 5,9 C 5,0 C 3,3 C 85 % 996,8 hPa 0,0 l/m 0 min 0 min 0 W/m 19,3 km/h (3 Bft) 100,00 %
14.12.2019 18:26 5,9 C 5,0 C 3,3 C 85 % 996,8 hPa 0,0 l/m 0 min 0 min 0 W/m 29,0 km/h (5 Bft) 100,00 %
14.12.2019 18:28 5,9 C 5,0 C 3,3 C 85 % 996,9 hPa 0,0 l/m 0 min 0 min 0 W/m 19,3 km/h (3 Bft) 100,00 %
14.12.2019 18:30 5,9 C 5,0 C 3,3 C 84 % 997,0 hPa 0,0 l/m 0 min 0 min 0 W/m 19,3 km/h (3 Bft) 93,62 %
14.12.2019 18:32 5,8 C 5,0 C 3,3 C 84 % 996,9 hPa 0,0 l/m 0 min 0 min 0 W/m 32,2 km/h (5 Bft) 97,87 %
14.12.2019 18:34 5,8 C 5,0 C 3,3 C 84 % 997,0 hPa 0,0 l/m 0 min 0 min 0 W/m 19,3 km/h (3 Bft) 100,00 %
14.12.2019 18:36 5,8 C 5,0 C 3,3 C 84 % 997,0 hPa 0,0 l/m 0 min 0 min 0 W/m 19,3 km/h (3 Bft) 100,00 %
14.12.2019 18:38 5,8 C 5,0 C 3,3 C 84 % 997,1 hPa 0,0 l/m 0 min 0 min 0 W/m 29,0 km/h (5 Bft) 100,00 %
14.12.2019 18:40 5,8 C 5,0 C 3,3 C 84 % 997,2 hPa 0,0 l/m 0 min 0 min 0 W/m 22,5 km/h (4 Bft) 100,00 %
14.12.2019 18:42 5,8 C 5,0 C 3,3 C 84 % 997,3 hPa 0,0 l/m 0 min 0 min 0 W/m 29,0 km/h (5 Bft) 100,00 %
14.12.2019 18:44 5,7 C 5,0 C 3,3 C 83 % 997,3 hPa 0,0 l/m 0 min 0 min 0 W/m 19,3 km/h (3 Bft) 100,00 %
14.12.2019 18:46 5,7 C 5,0 C 3,3 C 83 % 997,3 hPa 0,0 l/m 0 min 0 min 0 W/m 32,2 km/h (5 Bft) 100,00 %
14.12.2019 18:48 5,7 C 5,0 C 3,3 C 83 % 997,3 hPa 0,0 l/m 0 min 0 min 0 W/m 25,7 km/h (4 Bft) 100,00 %
14.12.2019 18:50 5,7 C 5,0 C 3,3 C 83 % 997,5 hPa 0,0 l/m 0 min 0 min 0 W/m 16,1 km/h (3 Bft) 100,00 %
14.12.2019 18:52 5,7 C 5,0 C 3,3 C 83 % 997,5 hPa 0,0 l/m 0 min 0 min 0 W/m 35,4 km/h (5 Bft) 100,00 %
14.12.2019 18:54 5,7 C 5,0 C 3,3 C 83 % 997,6 hPa 0,0 l/m 0 min 0 min 0 W/m 22,5 km/h (4 Bft) 100,00 %
14.12.2019 18:56 5,7 C 5,0 C 3,3 C 83 % 997,6 hPa 0,0 l/m 0 min 0 min 0 W/m 25,7 km/h (4 Bft) 97,87 %
14.12.2019 18:58 5,7 C 5,0 C 3,3 C 83 % 997,6 hPa 0,0 l/m 0 min 0 min 0 W/m 25,7 km/h (4 Bft) 100,00 %
14.12.2019 19:00 5,7 C 5,0 C 3,3 C 83 % 997,6 hPa 0,0 l/m 0 min 0 min 0 W/m 22,5 km/h (4 Bft) 100,00 %
14.12.2019 19:02 5,7 C 5,0 C 3,3 C 83 % 997,8 hPa 0,0 l/m 0 min 0 min 0 W/m 25,7 km/h (4 Bft) 97,87 %
14.12.2019 19:04 5,7 C 5,0 C 3,3 C 82 % 997,8 hPa 0,0 l/m 0 min 0 min 0 W/m 22,5 km/h (4 Bft) 97,87 %
14.12.2019 19:06 5,8 C 5,0 C 3,3 C 82 % 997,7 hPa 0,0 l/m 0 min 0 min 0 W/m 16,1 km/h (3 Bft) 97,87 %
14.12.2019 19:08 5,8 C 5,0 C 3,3 C 82 % 997,8 hPa 0,0 l/m 0 min 0 min 0 W/m 19,3 km/h (3 Bft) 97,83 %
14.12.2019 19:10 5,8 C 5,0 C 3,3 C 82 % 997,8 hPa 0,0 l/m 0 min 0 min 0 W/m 16,1 km/h (3 Bft) 97,87 %
14.12.2019 19:12 5,8 C 5,0 C 3,3 C 82 % 997,8 hPa 0,0 l/m 0 min 0 min 0 W/m 16,1 km/h (3 Bft) 57,45 %
14.12.2019 19:14 5,8 C 5,0 C 3,3 C 82 % 997,8 hPa 0,0 l/m 0 min 0 min 0 W/m 22,5 km/h (4 Bft) 97,87 %
14.12.2019 19:16 5,8 C 5,0 C 3,3 C 82 % 998,0 hPa 0,0 l/m 0 min 0 min 0 W/m 29,0 km/h (5 Bft) 97,87 %
14.12.2019 19:18 5,8 C 5,0 C 3,3 C 82 % 998,0 hPa 0,0 l/m 0 min 0 min 0 W/m 29,0 km/h (5 Bft) 100,00 %
14.12.2019 19:20 5,8 C 5,0 C 3,3 C 83 % 998,0 hPa 0,0 l/m 0 min 0 min 0 W/m 19,3 km/h (3 Bft) 95,65 %
14.12.2019 19:22 5,8 C 5,0 C 3,3 C 83 % 998,0 hPa 0,0 l/m 0 min 0 min 0 W/m 19,3 km/h (3 Bft) 95,74 %
14.12.2019 19:24 5,8 C 5,0 C 3,3 C 83 % 998,2 hPa 0,0 l/m 0 min 0 min 0 W/m 25,7 km/h (4 Bft) 97,87 %
14.12.2019 19:26 5,8 C 5,0 C 3,3 C 83 % 998,2 hPa 0,0 l/m 0 min 0 min 0 W/m 19,3 km/h (3 Bft) 97,87 %
14.12.2019 19:28 5,8 C 5,0 C 3,3 C 83 % 998,3 hPa 0,0 l/m 0 min 0 min 0 W/m 25,7 km/h (4 Bft) 95,74 %
14.12.2019 19:30 5,8 C 5,0 C 3,3 C 84 % 998,2 hPa 0,0 l/m 0 min 0 min 0 W/m 22,5 km/h (4 Bft) 97,87 %
14.12.2019 19:32 5,8 C 5,0 C 3,3 C 83 % 998,3 hPa 0,0 l/m 0 min 0 min 0 W/m 16,1 km/h (3 Bft) 93,48 %
14.12.2019 19:34 5,7 C 5,0 C 3,3 C 84 % 998,3 hPa 0,0 l/m 0 min 0 min 0 W/m 12,9 km/h (3 Bft) 97,87 %
14.12.2019 19:36 5,7 C 4,4 C 3,3 C 84 % 998,4 hPa 0,0 l/m 0 min 0 min 0 W/m 12,9 km/h (3 Bft) 95,74 %
14.12.2019 19:38 5,7 C 5,0 C 3,3 C 84 % 998,4 hPa 0,0 l/m 0 min 0 min 0 W/m 19,3 km/h (3 Bft) 95,74 %
14.12.2019 19:40 5,7 C 5,0 C 3,3 C 84 % 998,4 hPa 0,0 l/m 0 min 0 min 0 W/m 22,5 km/h (4 Bft) 95,74 %
14.12.2019 19:42 5,7 C 5,0 C 3,3 C 85 % 998,4 hPa 0,0 l/m 0 min 0 min 0 W/m 25,7 km/h (4 Bft) 95,65 %
14.12.2019 19:44 5,7 C 5,0 C 3,9 C 85 % 998,4 hPa 0,0 l/m 0 min 0 min 0 W/m 32,2 km/h (5 Bft) 95,74 %
14.12.2019 19:46 5,7 C 5,0 C 3,9 C 85 % 998,4 hPa 0,0 l/m 0 min 0 min 0 W/m 25,7 km/h (4 Bft) 95,74 %
14.12.2019 19:48 5,7 C 5,0 C 3,9 C 85 % 998,5 hPa 0,0 l/m 0 min 0 min 0 W/m 29,0 km/h (5 Bft) 91,49 %
14.12.2019 19:50 5,7 C 5,0 C 3,9 C 85 % 998,5 hPa 0,0 l/m 0 min 0 min 0 W/m 29,0 km/h (5 Bft) 93,62 %
14.12.2019 19:52 5,7 C 5,0 C 3,3 C 85 % 998,5 hPa 0,0 l/m 0 min 0 min 0 W/m 16,1 km/h (3 Bft) 93,62 %
14.12.2019 19:54 5,7 C 5,0 C 3,9 C 85 % 998,5 hPa 0,0 l/m 0 min 0 min 0 W/m 19,3 km/h (3 Bft) 93,48 %
14.12.2019 19:56 5,7 C 5,0 C 3,9 C 85 % 998,5 hPa 0,0 l/m 0 min 0 min 0 W/m 19,3 km/h (3 Bft) 91,49 %
14.12.2019 19:58 5,7 C 5,0 C 3,9 C 85 % 998,6 hPa 0,0 l/m 0 min 0 min 0 W/m 12,9 km/h (3 Bft) 91,49 %
14.12.2019 20:00 5,7 C 5,0 C 3,9 C 85 % 998,6 hPa 0,0 l/m 0 min 0 min 0 W/m 22,5 km/h (4 Bft) 91,67 %
14.12.2019 20:02 5,7 C 5,0 C 3,9 C 85 % 998,6 hPa 0,0 l/m 0 min 0 min 0 W/m 19,3 km/h (3 Bft) 91,49 %
14.12.2019 20:04 5,7 C 5,0 C 3,9 C 85 % 998,7 hPa 0,0 l/m 0 min 0 min 0 W/m 19,3 km/h (3 Bft) 95,92 %
14.12.2019 20:06 5,6 C 5,0 C 3,9 C 85 % 998,7 hPa 0,0 l/m 0 min 0 min 0 W/m 12,9 km/h (3 Bft) 95,83 %
14.12.2019 20:08 5,6 C 5,0 C 3,9 C 85 % 998,8 hPa 0,0 l/m 0 min 0 min 0 W/m 16,1 km/h (3 Bft) 93,75 %
14.12.2019 20:10 5,6 C 5,0 C 3,9 C 84 % 998,8 hPa 0,0 l/m 0 min 0 min 0 W/m 19,3 km/h (3 Bft) 94,44 %
14.12.2019 20:12 5,6 C 4,4 C 3,9 C 84 % 998,9 hPa 0,0 l/m 0 min 0 min 0 W/m 19,3 km/h (3 Bft) 93,62 %
14.12.2019 20:14 5,6 C 5,0 C 3,9 C 84 % 998,9 hPa 0,0 l/m 0 min 0 min 0 W/m 22,5 km/h (4 Bft) 91,67 %
14.12.2019 20:16 5,6 C 5,0 C 3,9 C 84 % 999,0 hPa 0,0 l/m 0 min 0 min 0 W/m 12,9 km/h (3 Bft) 95,74 %
14.12.2019 20:18 5,6 C 4,4 C 3,9 C 84 % 999,0 hPa 0,0 l/m 0 min 0 min 0 W/m 12,9 km/h (3 Bft) 93,62 %
14.12.2019 20:20 5,6 C 4,4 C 3,9 C 84 % 999,1 hPa 0,0 l/m 0 min 0 min 0 W/m 12,9 km/h (3 Bft) 55,32 %
14.12.2019 20:22 5,5 C 4,4 C 3,9 C 84 % 999,1 hPa 0,0 l/m 0 min 0 min 0 W/m 19,3 km/h (3 Bft) 93,75 %
14.12.2019 20:24 5,5 C 4,4 C 3,9 C 84 % 999,2 hPa 0,0 l/m 0 min 0 min 0 W/m 19,3 km/h (3 Bft) 93,75 %
14.12.2019 20:26 5,4 C 4,4 C 3,9 C 84 % 999,2 hPa 0,0 l/m 0 min 0 min 0 W/m 22,5 km/h (4 Bft) 95,74 %
14.12.2019 20:28 5,4 C 4,4 C 3,9 C 85 % 999,2 hPa 0,0 l/m 0 min 0 min 0 W/m 16,1 km/h (3 Bft) 95,74 %
14.12.2019 20:30 5,4 C 4,4 C 3,9 C 85 % 999,2 hPa 0,0 l/m 0 min 0 min 0 W/m 16,1 km/h (3 Bft) 95,74 %
14.12.2019 20:32 5,4 C 4,4 C 3,9 C 85 % 999,2 hPa 0,0 l/m 0 min 0 min 0 W/m 12,9 km/h (3 Bft) 93,48 %
14.12.2019 20:34 5,4 C 4,4 C 3,9 C 85 % 999,3 hPa 0,0 l/m 0 min 0 min 0 W/m 22,5 km/h (4 Bft) 100,00 %
14.12.2019 20:36 5,4 C 5,0 C 3,9 C 85 % 999,3 hPa 0,0 l/m 0 min 0 min 0 W/m 25,7 km/h (4 Bft) 97,87 %
14.12.2019 20:38 5,4 C 4,4 C 3,9 C 85 % 999,3 hPa 0,0 l/m 0 min 0 min 0 W/m 12,9 km/h (3 Bft) 100,00 %
14.12.2019 20:40 5,4 C 4,4 C 3,9 C 85 % 999,3 hPa 0,0 l/m 0 min 0 min 0 W/m 16,1 km/h (3 Bft) 98,00 %
14.12.2019 20:42 5,4 C 4,4 C 3,9 C 85 % 999,2 hPa 0,0 l/m 0 min 0 min 0 W/m 12,9 km/h (3 Bft) 97,83 %
14.12.2019 20:44 5,4 C 4,4 C 3,9 C 85 % 999,2 hPa 0,0 l/m 0 min 0 min 0 W/m 19,3 km/h (3 Bft) 100,00 %
14.12.2019 20:46 5,4 C 5,0 C 3,9 C 85 % 999,2 hPa 0,0 l/m 0 min 0 min 0 W/m 19,3 km/h (3 Bft) 97,87 %
14.12.2019 20:48 5,4 C 5,0 C 3,9 C 85 % 999,2 hPa 0,0 l/m 0 min 0 min 0 W/m 19,3 km/h (3 Bft) 100,00 %
14.12.2019 20:50 5,4 C 5,0 C 3,9 C 85 % 999,3 hPa 0,0 l/m 0 min 0 min 0 W/m 19,3 km/h (3 Bft) 100,00 %
14.12.2019 20:52 5,4 C 5,0 C 3,9 C 85 % 999,3 hPa 0,0 l/m 0 min 0 min 0 W/m 16,1 km/h (3 Bft) 95,74 %
14.12.2019 20:54 5,4 C 5,0 C 3,9 C 85 % 999,3 hPa 0,0 l/m 0 min 0 min 0 W/m 16,1 km/h (3 Bft) 100,00 %
14.12.2019 20:56 5,4 C 4,4 C 3,9 C 85 % 999,3 hPa 0,0 l/m 0 min 0 min 0 W/m 16,1 km/h (3 Bft) 97,87 %
14.12.2019 20:58 5,4 C 4,4 C 3,9 C 85 % 999,3 hPa 0,0 l/m 0 min 0 min 0 W/m 16,1 km/h (3 Bft) 100,00 %
14.12.2019 21:00 5,4 C 4,4 C 3,9 C 85 % 999,3 hPa 0,0 l/m 0 min 0 min 0 W/m 12,9 km/h (3 Bft) 100,00 %
14.12.2019 21:02 5,4 C 4,4 C 3,9 C 85 % 999,4 hPa 0,0 l/m 0 min 0 min 0 W/m 22,5 km/h (4 Bft) 100,00 %
14.12.2019 21:04 5,4 C 5,0 C 3,9 C 85 % 999,4 hPa 0,0 l/m 0 min 0 min 0 W/m 22,5 km/h (4 Bft) 100,00 %
14.12.2019 21:06 5,4 C 4,4 C 3,9 C 85 % 999,5 hPa 0,0 l/m 0 min 0 min 0 W/m 12,9 km/h (3 Bft) 97,87 %
14.12.2019 21:08 5,4 C 4,4 C 3,9 C 85 % 999,4 hPa 0,0 l/m 0 min 0 min 0 W/m 22,5 km/h (4 Bft) 100,00 %
14.12.2019 21:10 5,4 C 4,4 C 3,9 C 86 % 999,5 hPa 0,0 l/m 0 min 0 min 0 W/m 12,9 km/h (3 Bft) 100,00 %
14.12.2019 21:12 5,4 C 4,4 C 3,9 C 86 % 999,5 hPa 0,0 l/m 0 min 0 min 0 W/m 16,1 km/h (3 Bft) 100,00 %
14.12.2019 21:14 5,4 C 5,0 C 3,9 C 86 % 999,5 hPa 0,0 l/m 0 min 0 min 0 W/m 22,5 km/h (4 Bft) 95,74 %
14.12.2019 21:16 5,4 C 5,0 C 3,9 C 86 % 999,5 hPa 0,0 l/m 0 min 0 min 0 W/m 19,3 km/h (3 Bft) 100,00 %
14.12.2019 21:18 5,4 C 5,0 C 3,9 C 86 % 999,5 hPa 0,0 l/m 0 min 0 min 0 W/m 16,1 km/h (3 Bft) 100,00 %
14.12.2019 21:20 5,4 C 5,0 C 3,9 C 86 % 999,5 hPa 0,0 l/m 0 min 0 min 0 W/m 16,1 km/h (3 Bft) 100,00 %
14.12.2019 21:22 5,4 C 5,0 C 3,9 C 86 % 999,5 hPa 0,0 l/m 0 min 0 min 0 W/m 9,7 km/h (2 Bft) 100,00 %
14.12.2019 21:24 5,4 C 5,0 C 3,9 C 86 % 999,5 hPa 0,0 l/m 0 min 0 min 0 W/m 16,1 km/h (3 Bft) 100,00 %
14.12.2019 21:26 5,5 C 5,0 C 3,9 C 86 % 999,5 hPa 0,0 l/m 0 min 0 min 0 W/m 19,3 km/h (3 Bft) 100,00 %
14.12.2019 21:28 5,4 C 5,0 C 3,9 C 86 % 999,5 hPa 0,0 l/m 0 min 0 min 0 W/m 19,3 km/h (3 Bft) 97,87 %
14.12.2019 21:30 5,5 C 5,0 C 3,9 C 86 % 999,5 hPa 0,0 l/m 0 min 0 min 0 W/m 16,1 km/h (3 Bft) 100,00 %
14.12.2019 21:32 5,5 C 5,0 C 3,9 C 86 % 999,5 hPa 0,0 l/m 0 min 0 min 0 W/m 16,1 km/h (3 Bft) 100,00 %
14.12.2019 21:34 5,5 C 5,0 C 3,9 C 87 % 999,6 hPa 0,0 l/m 0 min 0 min 0 W/m 16,1 km/h (3 Bft) 100,00 %
14.12.2019 21:36 5,4 C 5,0 C 3,9 C 87 % 999,6 hPa 0,0 l/m 0 min 0 min 0 W/m 19,3 km/h (3 Bft) 100,00 %
14.12.2019 21:38 5,4 C 4,4 C 3,9 C 87 % 999,6 hPa 0,0 l/m 0 min 0 min 0 W/m 12,9 km/h (3 Bft) 100,00 %
14.12.2019 21:40 5,4 C 4,4 C 3,9 C 87 % 999,6 hPa 0,0 l/m 0 min 0 min 0 W/m 19,3 km/h (3 Bft) 100,00 %
14.12.2019 21:42 5,4 C 4,4 C 3,9 C 87 % 999,6 hPa 0,0 l/m 0 min 0 min 0 W/m 12,9 km/h (3 Bft) 97,87 %
14.12.2019 21:44 5,4 C 4,4 C 3,9 C 87 % 999,6 hPa 0,0 l/m 0 min 0 min 0 W/m 12,9 km/h (3 Bft) 97,87 %
14.12.2019 21:46 5,4 C 4,4 C 3,9 C 87 % 999,6 hPa 0,0 l/m 0 min 0 min 0 W/m 16,1 km/h (3 Bft) 100,00 %
14.12.2019 21:48 5,4 C 4,4 C 3,9 C 87 % 999,6 hPa 0,0 l/m 0 min 0 min 0 W/m 12,9 km/h (3 Bft) 100,00 %
14.12.2019 21:50 5,4 C 4,4 C 3,9 C 87 % 999,6 hPa 0,0 l/m 0 min 0 min 0 W/m 16,1 km/h (3 Bft) 100,00 %
14.12.2019 21:52 5,4 C 4,4 C 3,9 C 87 % 999,7 hPa 0,0 l/m 0 min 0 min 0 W/m 12,9 km/h (3 Bft) 97,83 %
14.12.2019 21:54 5,4 C 4,4 C 3,9 C 87 % 999,7 hPa 0,0 l/m 0 min 0 min 0 W/m 19,3 km/h (3 Bft) 100,00 %
14.12.2019 21:56 5,4 C 4,4 C 3,9 C 87 % 999,8 hPa 0,0 l/m 0 min 0 min 0 W/m 12,9 km/h (3 Bft) 100,00 %
14.12.2019 21:58 5,4 C 5,0 C 3,9 C 87 % 999,8 hPa 0,0 l/m 0 min 0 min 0 W/m 12,9 km/h (3 Bft) 100,00 %
14.12.2019 22:00 5,4 C 5,0 C 3,9 C 87 % 999,9 hPa 0,0 l/m 0 min 0 min 0 W/m 12,9 km/h (3 Bft) 100,00 %
14.12.2019 22:02 5,4 C 5,0 C 3,9 C 87 % 1000,0 hPa 0,0 l/m 0 min 0 min 0 W/m 19,3 km/h (3 Bft) 100,00 %
14.12.2019 22:04 5,4 C 5,0 C 3,9 C 87 % 999,9 hPa 0,0 l/m 0 min 0 min 0 W/m 16,1 km/h (3 Bft) 97,87 %
14.12.2019 22:06 5,4 C 5,0 C 3,9 C 87 % 999,9 hPa 0,0 l/m 0 min 0 min 0 W/m 19,3 km/h (3 Bft) 100,00 %
14.12.2019 22:08 5,4 C 5,0 C 3,9 C 87 % 999,8 hPa 0,0 l/m 0 min 0 min 0 W/m 12,9 km/h (3 Bft) 97,92 %
14.12.2019 22:10 5,5 C 5,0 C 3,9 C 87 % 999,9 hPa 0,0 l/m 0 min 0 min 0 W/m 25,7 km/h (4 Bft) 97,87 %
14.12.2019 22:12 5,5 C 5,0 C 4,4 C 87 % 999,9 hPa 0,0 l/m 0 min 0 min 0 W/m 16,1 km/h (3 Bft) 100,00 %
14.12.2019 22:14 5,5 C 5,0 C 4,4 C 87 % 999,9 hPa 0,0 l/m 0 min 0 min 0 W/m 19,3 km/h (3 Bft) 97,96 %
14.12.2019 22:16 5,6 C 5,0 C 4,4 C 87 % 999,9 hPa 0,0 l/m 0 min 0 min 0 W/m 19,3 km/h (3 Bft) 100,00 %
14.12.2019 22:18 5,6 C 5,0 C 4,4 C 88 % 999,9 hPa 0,0 l/m 0 min 0 min 0 W/m 16,1 km/h (3 Bft) 96,23 %
14.12.2019 22:20 5,6 C 5,0 C 4,4 C 87 % 999,9 hPa 0,0 l/m 0 min 0 min 0 W/m 19,3 km/h (3 Bft) 96,00 %
14.12.2019 22:22 5,6 C 5,0 C 4,4 C 88 % 999,9 hPa 0,0 l/m 0 min 0 min 0 W/m 22,5 km/h (4 Bft) 95,74 %
14.12.2019 22:24 5,6 C 5,0 C 4,4 C 88 % 999,9 hPa 0,0 l/m 0 min 0 min 0 W/m 6,4 km/h (2 Bft) 95,74 %
14.12.2019 22:26 5,7 C 5,0 C 4,4 C 88 % 999,8 hPa 0,0 l/m 0 min 0 min 0 W/m 16,1 km/h (3 Bft) 95,65 %
14.12.2019 22:28 5,7 C 5,6 C 4,4 C 88 % 999,9 hPa 0,0 l/m 0 min 0 min 0 W/m 19,3 km/h (3 Bft) 95,74 %
14.12.2019 22:30 5,7 C 5,6 C 4,4 C 88 % 999,9 hPa 0,0 l/m 0 min 0 min 0 W/m 22,5 km/h (4 Bft) 95,74 %
14.12.2019 22:32 5,8 C 5,6 C 4,4 C 88 % 999,8 hPa 0,0 l/m 0 min 0 min 0 W/m 16,1 km/h (3 Bft) 91,49 %
14.12.2019 22:34 5,8 C 5,6 C 4,4 C 88 % 999,8 hPa 0,0 l/m 0 min 0 min 0 W/m 19,3 km/h (3 Bft) 94,00 %
14.12.2019 22:36 5,8 C 5,6 C 4,4 C 88 % 999,7 hPa 0,0 l/m 0 min 0 min 0 W/m 16,1 km/h (3 Bft) 93,62 %
14.12.2019 22:38 5,8 C 5,6 C 4,4 C 88 % 999,8 hPa 0,0 l/m 0 min 0 min 0 W/m 19,3 km/h (3 Bft) 93,48 %
14.12.2019 22:40 5,9 C 5,6 C 4,4 C 88 % 999,9 hPa 0,0 l/m 0 min 0 min 0 W/m 25,7 km/h (4 Bft) 93,62 %
14.12.2019 22:42 5,9 C 5,6 C 4,4 C 88 % 999,9 hPa 0,0 l/m 0 min 0 min 0 W/m 19,3 km/h (3 Bft) 91,49 %
14.12.2019 22:44 5,9 C 5,6 C 4,4 C 88 % 999,8 hPa 0,0 l/m 0 min 0 min 0 W/m 12,9 km/h (3 Bft) 91,49 %
14.12.2019 22:46 5,9 C 5,6 C 4,4 C 88 % 999,8 hPa 0,0 l/m 0 min 0 min 0 W/m 12,9 km/h (3 Bft) 95,74 %
14.12.2019 22:48 5,9 C 5,6 C 4,4 C 88 % 999,9 hPa 0,0 l/m 0 min 0 min 0 W/m 16,1 km/h (3 Bft) 91,30 %
14.12.2019 22:50 5,9 C 5,6 C 4,4 C 88 % 999,8 hPa 0,0 l/m 0 min 0 min 0 W/m 16,1 km/h (3 Bft) 95,74 %
14.12.2019 22:52 5,9 C 5,6 C 4,4 C 88 % 999,8 hPa 0,0 l/m 0 min 0 min 0 W/m 19,3 km/h (3 Bft) 91,49 %
14.12.2019 22:54 5,9 C 5,6 C 4,4 C 88 % 999,8 hPa 0,0 l/m 0 min 0 min 0 W/m 12,9 km/h (3 Bft) 92,11 %
14.12.2019 22:56 5,9 C 5,6 C 4,4 C 88 % 999,8 hPa 0,0 l/m 0 min 0 min 0 W/m 19,3 km/h (3 Bft) 91,49 %
14.12.2019 22:58 5,9 C 5,6 C 4,4 C 88 % 999,7 hPa 0,0 l/m 0 min 0 min 0 W/m 12,9 km/h (3 Bft) 93,62 %
14.12.2019 23:00 5,9 C 5,6 C 4,4 C 88 % 999,7 hPa 0,0 l/m 0 min 0 min 0 W/m 12,9 km/h (3 Bft) 93,62 %
14.12.2019 23:02 5,9 C 5,6 C 4,4 C 88 % 999,7 hPa 0,0 l/m 0 min 0 min 0 W/m 12,9 km/h (3 Bft) 93,62 %
14.12.2019 23:04 5,9 C 5,0 C 4,4 C 88 % 999,6 hPa 0,0 l/m 0 min 0 min 0 W/m 6,4 km/h (2 Bft) 92,68 %
14.12.2019 23:06 5,9 C 5,0 C 4,4 C 88 % 999,7 hPa 0,0 l/m 0 min 0 min 0 W/m 6,4 km/h (2 Bft) 95,83 %
14.12.2019 23:08 5,9 C 5,0 C 4,4 C 88 % 999,7 hPa 0,0 l/m 0 min 0 min 0 W/m 6,4 km/h (2 Bft) 94,44 %
14.12.2019 23:10 5,9 C 5,0 C 3,9 C 88 % 999,6 hPa 0,0 l/m 0 min 0 min 0 W/m 6,4 km/h (2 Bft) 97,87 %
14.12.2019 23:12 5,9 C 5,0 C 3,9 C 88 % 999,4 hPa 0,0 l/m 0 min 0 min 0 W/m 6,4 km/h (2 Bft) 97,96 %
14.12.2019 23:14 5,9 C 5,0 C 3,9 C 88 % 999,4 hPa 0,0 l/m 0 min 0 min 0 W/m 12,9 km/h (3 Bft) 98,00 %
14.12.2019 23:16 5,9 C 5,0 C 3,9 C 88 % 999,5 hPa 0,0 l/m 0 min 0 min 0 W/m 6,4 km/h (2 Bft) 97,30 %
14.12.2019 23:18 5,9 C 5,0 C 3,9 C 88 % 999,4 hPa 0,0 l/m 0 min 0 min 0 W/m 6,4 km/h (2 Bft) 95,74 %
14.12.2019 23:20 5,9 C 5,0 C 3,9 C 88 % 999,5 hPa 0,0 l/m 0 min 0 min 0 W/m 6,4 km/h (2 Bft) 97,87 %
14.12.2019 23:22 5,9 C 5,0 C 3,9 C 88 % 999,4 hPa 0,0 l/m 0 min 0 min 0 W/m 6,4 km/h (2 Bft) 95,83 %
14.12.2019 23:24 5,9 C 5,0 C 4,4 C 88 % 999,4 hPa 0,0 l/m 0 min 0 min 0 W/m 12,9 km/h (3 Bft) 97,83 %
14.12.2019 23:26 5,9 C 5,0 C 4,4 C 88 % 999,4 hPa 0,0 l/m 0 min 0 min 0 W/m 12,9 km/h (3 Bft) 97,92 %
14.12.2019 23:28 5,9 C 5,0 C 4,4 C 88 % 999,4 hPa 0,0 l/m 0 min 0 min 0 W/m 16,1 km/h (3 Bft) 97,92 %
14.12.2019 23:30 5,9 C 5,6 C 4,4 C 88 % 999,3 hPa 0,0 l/m 0 min 0 min 0 W/m 19,3 km/h (3 Bft) 100,00 %
14.12.2019 23:32 5,9 C 5,6 C 4,4 C 89 % 999,3 hPa 0,0 l/m 0 min 0 min 0 W/m 19,3 km/h (3 Bft) 97,96 %
14.12.2019 23:34 5,9 C 5,6 C 4,4 C 89 % 999,3 hPa 0,0 l/m 0 min 0 min 0 W/m 12,9 km/h (3 Bft) 100,00 %
14.12.2019 23:36 5,9 C 5,6 C 4,4 C 89 % 999,3 hPa 0,0 l/m 0 min 0 min 0 W/m 16,1 km/h (3 Bft) 100,00 %
14.12.2019 23:38 5,9 C 5,0 C 4,4 C 89 % 999,2 hPa 0,0 l/m 0 min 0 min 0 W/m 6,4 km/h (2 Bft) 100,00 %
14.12.2019 23:40 5,9 C 5,6 C 4,4 C 89 % 999,2 hPa 0,0 l/m 0 min 0 min 0 W/m 22,5 km/h (4 Bft) 100,00 %
14.12.2019 23:42 5,9 C 5,6 C 4,4 C 89 % 999,3 hPa 0,0 l/m 0 min 0 min 0 W/m 16,1 km/h (3 Bft) 97,92 %
14.12.2019 23:44 5,9 C 5,6 C 4,4 C 89 % 999,3 hPa 0,0 l/m 0 min 0 min 0 W/m 25,7 km/h (4 Bft) 100,00 %
14.12.2019 23:46 5,9 C 5,6 C 4,4 C 89 % 999,3 hPa 0,0 l/m 0 min 0 min 0 W/m 19,3 km/h (3 Bft) 100,00 %
14.12.2019 23:48 5,9 C 5,6 C 4,4 C 89 % 999,3 hPa 0,0 l/m 0 min 0 min 0 W/m 22,5 km/h (4 Bft) 100,00 %
14.12.2019 23:50 5,9 C 5,6 C 5,0 C 89 % 999,2 hPa 0,0 l/m 0 min 0 min 0 W/m 19,3 km/h (3 Bft) 100,00 %
14.12.2019 23:52 6,0 C 5,6 C 5,0 C 89 % 999,3 hPa 0,0 l/m 0 min 0 min 0 W/m 29,0 km/h (5 Bft) 100,00 %
14.12.2019 23:54 6,0 C 5,6 C 5,0 C 89 % 999,2 hPa 0,0 l/m 0 min 0 min 0 W/m 16,1 km/h (3 Bft) 100,00 %
14.12.2019 23:56 6,1 C 5,6 C 5,0 C 89 % 999,2 hPa 0,0 l/m 0 min 0 min 0 W/m 22,5 km/h (4 Bft) 97,87 %
14.12.2019 23:58 6,1 C 5,6 C 5,0 C 89 % 999,2 hPa 0,0 l/m 0 min 0 min 0 W/m 25,7 km/h (4 Bft) 100,00 %
_ Min-Zeit 07:32 07:24 04:56 19:04 05:50 - - - - 03:50 20:20
Minimum _ 4,0 C 2,8 C 2,8 C 82 % 980,7 hPa - - - - 0,0 km/h (0 Bft) 55,32 %
_ Max-Zeit 14:40 12:52 14:24 08:10 22:02 03:44 12:08 03:35 12:52 15:04 00:52
Maximum _ 7,1 C 8,3 C 5,0 C 99 % 1000,0 hPa 0,2 l/m 4 min 5 min 318 W/m 54,7 km/h
S-SO (7 Bft)
100,00 %
Durchschnitt _ 5,5 C 4,6 C 3,8 C 92 % 991,0 hPa #9,0 l/m #54 min. #7:18 h 63 W/m 19,5 km/h (3 Bft) 97,13 %
© 2019 W. Hausmann